Time,TemperatureF,DewpointF,PressureIn,WindDirection,WindDirectionDegrees,WindSpeedMPH,WindSpeedGustMPH,Humidity,HourlyPrecipIn,Conditions,Clouds,dailyrainin,SoftwareType,DateUTC
2013-03-25 00:00:00,36.7,34.9,29.55,ENE,69,1.0,2.0,93,0.00,,,0.68,Wunderground v.1.15,2013-03-25 04:00:00,
2013-03-25 00:01:00,36.7,34.9,29.55,ENE,58,1.0,2.0,93,0.00,,,0.00,Wunderground v.1.15,2013-03-25 04:01:00,
2013-03-25 00:04:00,36.6,34.5,29.55,NE,54,3.0,3.0,92,0.00,,,0.00,Wunderground v.1.15,2013-03-25 04:04:00,
2013-03-25 00:06:00,36.7,34.6,29.55,ENE,61,2.0,3.0,92,0.00,,,0.00,Wunderground v.1.15,2013-03-25 04:06:00,
2013-03-25 00:08:00,36.7,34.6,29.55,ENE,60,0.0,3.0,92,0.00,,,0.00,Wunderground v.1.15,2013-03-25 04:08:00,
2013-03-25 00:12:00,36.7,34.6,29.55,ENE,61,1.0,1.0,92,0.00,,,0.00,Wunderground v.1.15,2013-03-25 04:12:00,
2013-03-25 00:14:00,36.7,34.6,29.55,ENE,61,0.0,1.0,92,0.00,,,0.00,Wunderground v.1.15,2013-03-25 04:14:00,
2013-03-25 00:17:00,36.7,34.6,29.55,ENE,61,0.0,1.0,92,0.00,,,0.00,Wunderground v.1.15,2013-03-25 04:17:00,
2013-03-25 00:19:00,36.7,34.6,29.55,ENE,61,1.0,1.0,92,0.00,,,0.00,Wunderground v.1.15,2013-03-25 04:19:00,
2013-03-25 00:20:00,36.7,34.6,29.55,ENE,61,0.0,0.0,92,0.00,,,0.00,Wunderground v.1.15,2013-03-25 04:20:00,
2013-03-25 00:21:00,36.8,34.7,29.55,ENE,61,0.0,0.0,92,0.00,,,0.00,Wunderground v.1.15,2013-03-25 04:21:00,
2013-03-25 00:25:00,36.7,34.6,29.56,ENE,61,0.0,0.0,92,0.00,,,0.00,Wunderground v.1.15,2013-03-25 04:25:00,
2013-03-25 00:26:00,36.7,34.6,29.56,ENE,61,0.0,0.0,92,0.00,,,0.00,Wunderground v.1.15,2013-03-25 04:26:00,
2013-03-25 00:28:00,36.8,34.7,29.56,ENE,61,2.0,2.0,92,0.00,,,0.00,Wunderground v.1.15,2013-03-25 04:28:00,
2013-03-25 00:30:00,36.8,34.7,29.56,ENE,61,0.0,0.0,92,0.00,,,0.00,Wunderground v.1.15,2013-03-25 04:30:00,
2013-03-25 00:32:00,36.8,34.7,29.56,ENE,61,0.0,2.0,92,0.00,,,0.00,Wunderground v.1.15,2013-03-25 04:32:00,
2013-03-25 00:33:00,36.8,34.7,29.56,ENE,61,0.0,2.0,92,0.00,,,0.00,Wunderground v.1.15,2013-03-25 04:33:00,
2013-03-25 00:38:00,36.7,34.6,29.55,ENE,72,2.0,3.0,92,0.00,,,0.00,Wunderground v.1.15,2013-03-25 04:38:00,
2013-03-25 00:39:00,36.7,34.3,29.55,ENE,72,1.0,3.0,91,0.00,,,0.00,Wunderground v.1.15,2013-03-25 04:39:00,
2013-03-25 00:44:00,36.8,34.4,29.56,ENE,72,1.0,1.0,91,0.00,,,0.00,Wunderground v.1.15,2013-03-25 04:44:00,
2013-03-25 00:46:00,36.8,34.4,29.55,ENE,72,0.0,1.0,91,0.00,,,0.00,Wunderground v.1.15,2013-03-25 04:46:00,
2013-03-25 00:49:00,36.8,34.4,29.56,ENE,72,0.0,1.0,91,0.00,,,0.00,Wunderground v.1.15,2013-03-25 04:49:00,
2013-03-25 00:52:00,36.8,34.4,29.56,ENE,72,2.0,2.0,91,0.00,,,0.00,Wunderground v.1.15,2013-03-25 04:52:00,
2013-03-25 00:53:00,36.8,34.4,29.56,ENE,70,2.0,2.0,91,0.00,,,0.00,Wunderground v.1.15,2013-03-25 04:53:00,
2013-03-25 00:54:00,36.8,34.4,29.56,ENE,69,2.0,2.0,91,0.00,,,0.00,Wunderground v.1.15,2013-03-25 04:54:00,
2013-03-25 01:00:00,36.9,34.5,29.56,ENE,73,0.0,1.0,91,0.00,,,0.00,Wunderground v.1.15,2013-03-25 05:00:00,
2013-03-25 01:04:00,36.9,34.5,29.56,SSE,150,0.0,1.0,91,0.00,,,0.00,Wunderground v.1.15,2013-03-25 05:04:00,
2013-03-25 01:05:00,36.9,34.5,29.56,SSE,150,0.0,1.0,91,0.00,,,0.00,Wunderground v.1.15,2013-03-25 05:05:00,
2013-03-25 01:06:00,36.9,34.5,29.56,SSE,152,1.0,1.0,91,0.00,,,0.00,Wunderground v.1.15,2013-03-25 05:06:00,
2013-03-25 01:07:00,36.9,34.5,29.56,SSE,152,1.0,1.0,91,0.00,,,0.00,Wunderground v.1.15,2013-03-25 05:07:00,
2013-03-25 01:11:00,36.9,34.2,29.56,ENE,61,0.0,0.0,90,0.00,,,0.00,Wunderground v.1.15,2013-03-25 05:11:00,
2013-03-25 01:12:00,36.9,34.5,29.56,ENE,61,1.0,1.0,91,0.00,,,0.00,Wunderground v.1.15,2013-03-25 05:12:00,
2013-03-25 01:13:00,36.9,34.2,29.56,ENE,61,0.0,1.0,90,0.00,,,0.00,Wunderground v.1.15,2013-03-25 05:13:00,
2013-03-25 01:17:00,36.9,34.2,29.56,ENE,58,0.0,3.0,90,0.00,,,0.00,Wunderground v.1.15,2013-03-25 05:17:00,
2013-03-25 01:19:00,36.8,34.1,29.56,ENE,65,3.0,3.0,90,0.00,,,0.00,Wunderground v.1.15,2013-03-25 05:19:00,
2013-03-25 01:20:00,36.8,34.1,29.55,ENE,64,4.0,4.0,90,0.00,,,0.00,Wunderground v.1.15,2013-03-25 05:20:00,
2013-03-25 01:23:00,36.8,34.1,29.55,ENE,70,0.0,4.0,90,0.00,,,0.00,Wunderground v.1.15,2013-03-25 05:23:00,
2013-03-25 01:25:00,36.8,34.1,29.54,East,81,1.0,4.0,90,0.00,,,0.00,Wunderground v.1.15,2013-03-25 05:25:00,
2013-03-25 01:26:00,36.8,34.1,29.54,East,80,2.0,4.0,90,0.00,,,0.00,Wunderground v.1.15,2013-03-25 05:26:00,
2013-03-25 01:29:00,36.8,34.1,29.54,ENE,70,1.0,4.0,90,0.00,,,0.00,Wunderground v.1.15,2013-03-25 05:29:00,
2013-03-25 01:30:00,36.8,34.1,29.54,ENE,72,1.0,1.0,90,0.00,,,0.00,Wunderground v.1.15,2013-03-25 05:30:00,
2013-03-25 01:31:00,36.8,34.1,29.54,East,79,1.0,1.0,90,0.00,,,0.00,Wunderground v.1.15,2013-03-25 05:31:00,
2013-03-25 01:32:00,36.8,34.1,29.53,East,79,0.0,1.0,90,0.00,,,0.00,Wunderground v.1.15,2013-03-25 05:32:00,
2013-03-25 01:35:00,36.8,34.1,29.53,ENE,65,2.0,2.0,90,0.00,,,0.00,Wunderground v.1.15,2013-03-25 05:35:00,
2013-03-25 01:39:00,36.7,34.0,29.53,ENE,68,1.0,2.0,90,0.00,,,0.00,Wunderground v.1.15,2013-03-25 05:39:00,
2013-03-25 01:40:00,36.7,34.0,29.53,ENE,70,1.0,1.0,90,0.00,,,0.00,Wunderground v.1.15,2013-03-25 05:40:00,
2013-03-25 01:42:00,36.7,34.0,29.53,East,84,0.0,1.0,90,0.00,,,0.00,Wunderground v.1.15,2013-03-25 05:42:00,
2013-03-25 01:43:00,36.7,34.0,29.53,East,84,1.0,1.0,90,0.00,,,0.00,Wunderground v.1.15,2013-03-25 05:43:00,
2013-03-25 01:45:00,36.7,34.0,29.53,ENE,72,1.0,1.0,90,0.00,,,0.00,Wunderground v.1.15,2013-03-25 05:45:00,
2013-03-25 01:48:00,36.6,33.9,29.53,East,89,1.0,5.0,90,0.00,,,0.00,Wunderground v.1.15,2013-03-25 05:48:00,
2013-03-25 01:51:00,36.6,33.9,29.53,ENE,58,2.0,2.0,90,0.00,,,0.00,Wunderground v.1.15,2013-03-25 05:51:00,
2013-03-25 01:53:00,36.5,33.8,29.52,ENE,63,1.0,2.0,90,0.00,,,0.00,Wunderground v.1.15,2013-03-25 05:53:00,
2013-03-25 01:54:00,36.5,33.8,29.52,ENE,72,3.0,3.0,90,0.00,,,0.00,Wunderground v.1.15,2013-03-25 05:54:00,
2013-03-25 01:56:00,36.5,33.8,29.52,ENE,63,2.0,3.0,90,0.00,,,0.00,Wunderground v.1.15,2013-03-25 05:56:00,
2013-03-25 01:59:00,36.5,34.1,29.52,ENE,71,0.0,3.0,91,0.00,,,0.00,Wunderground v.1.15,2013-03-25 05:59:00,
2013-03-25 02:01:00,36.5,34.1,29.52,ENE,71,0.0,2.0,91,0.00,,,0.00,Wunderground v.1.15,2013-03-25 06:01:00,
2013-03-25 02:04:00,36.5,34.1,29.52,ENE,77,1.0,2.0,91,0.00,,,0.00,Wunderground v.1.15,2013-03-25 06:04:00,
2013-03-25 02:06:00,36.5,34.1,29.52,ENE,67,2.0,2.0,91,0.00,,,0.00,Wunderground v.1.15,2013-03-25 06:06:00,
2013-03-25 02:07:00,36.5,34.1,29.52,ENE,69,0.0,2.0,91,0.00,,,0.00,Wunderground v.1.15,2013-03-25 06:07:00,
2013-03-25 02:09:00,36.5,34.1,29.52,ENE,70,1.0,2.0,91,0.00,,,0.00,Wunderground v.1.15,2013-03-25 06:09:00,
2013-03-25 02:11:00,36.5,34.1,29.52,ENE,63,0.0,1.0,91,0.00,,,0.00,Wunderground v.1.15,2013-03-25 06:11:00,
2013-03-25 02:12:00,36.5,34.1,29.52,ENE,64,0.0,1.0,91,0.00,,,0.00,Wunderground v.1.15,2013-03-25 06:12:00,
2013-03-25 02:14:00,36.5,34.1,29.53,ENE,64,0.0,1.0,91,0.00,,,0.00,Wunderground v.1.15,2013-03-25 06:14:00,
2013-03-25 02:17:00,36.5,34.1,29.53,ENE,63,1.0,1.0,91,0.00,,,0.00,Wunderground v.1.15,2013-03-25 06:17:00,
2013-03-25 02:18:00,36.5,34.1,29.52,ENE,65,0.0,1.0,91,0.00,,,0.00,Wunderground v.1.15,2013-03-25 06:18:00,
2013-03-25 02:19:00,36.5,34.1,29.52,ENE,65,0.0,1.0,91,0.00,,,0.00,Wunderground v.1.15,2013-03-25 06:19:00,
2013-03-25 02:22:00,36.5,34.1,29.52,ENE,65,1.0,1.0,91,0.00,,,0.00,Wunderground v.1.15,2013-03-25 06:22:00,
2013-03-25 02:23:00,36.5,34.1,29.52,ESE,103,0.0,1.0,91,0.00,,,0.00,Wunderground v.1.15,2013-03-25 06:23:00,
2013-03-25 02:24:00,36.5,34.1,29.52,ESE,103,0.0,1.0,91,0.00,,,0.00,Wunderground v.1.15,2013-03-25 06:24:00,
2013-03-25 02:27:00,36.4,34.0,29.53,ESE,103,0.0,1.0,91,0.00,,,0.00,Wunderground v.1.15,2013-03-25 06:27:00,
2013-03-25 02:28:00,36.4,34.3,29.53,ESE,103,0.0,1.0,92,0.00,,,0.00,Wunderground v.1.15,2013-03-25 06:28:00,
2013-03-25 02:29:00,36.4,34.3,29.52,ESE,103,0.0,1.0,92,0.00,,,0.00,Wunderground v.1.15,2013-03-25 06:29:00,
2013-03-25 02:32:00,36.4,34.3,29.52,NNE,13,1.0,1.0,92,0.00,,,0.00,Wunderground v.1.15,2013-03-25 06:32:00,
2013-03-25 02:33:00,36.4,34.3,29.52,ENE,65,2.0,2.0,92,0.00,,,0.00,Wunderground v.1.15,2013-03-25 06:33:00,
2013-03-25 02:35:00,36.4,34.3,29.52,East,84,1.0,2.0,92,0.00,,,0.00,Wunderground v.1.15,2013-03-25 06:35:00,
2013-03-25 02:37:00,36.4,34.3,29.53,East,84,0.0,2.0,92,0.00,,,0.00,Wunderground v.1.15,2013-03-25 06:37:00,
2013-03-25 02:38:00,36.4,34.3,29.53,East,85,0.0,2.0,92,0.00,,,0.00,Wunderground v.1.15,2013-03-25 06:38:00,
2013-03-25 02:40:00,36.4,34.3,29.53,East,84,0.0,1.0,92,0.00,,,0.00,Wunderground v.1.15,2013-03-25 06:40:00,
2013-03-25 02:42:00,36.4,34.3,29.53,East,84,0.0,1.0,92,0.00,,,0.00,Wunderground v.1.15,2013-03-25 06:42:00,
2013-03-25 02:43:00,36.4,34.3,29.53,East,84,0.0,1.0,92,0.00,,,0.00,Wunderground v.1.15,2013-03-25 06:43:00,
2013-03-25 02:45:00,36.4,34.3,29.53,East,84,0.0,1.0,92,0.00,,,0.00,Wunderground v.1.15,2013-03-25 06:45:00,
2013-03-25 02:47:00,36.4,34.3,29.52,East,84,0.0,1.0,92,0.00,,,0.00,Wunderground v.1.15,2013-03-25 06:47:00,
2013-03-25 02:48:00,36.4,34.3,29.52,East,84,0.0,1.0,92,0.00,,,0.00,Wunderground v.1.15,2013-03-25 06:48:00,
2013-03-25 02:50:00,36.4,34.3,29.52,East,84,0.0,0.0,92,0.00,,,0.00,Wunderground v.1.15,2013-03-25 06:50:00,
2013-03-25 02:52:00,36.4,34.3,29.52,East,84,0.0,1.0,92,0.00,,,0.00,Wunderground v.1.15,2013-03-25 06:52:00,
2013-03-25 02:53:00,36.4,34.3,29.52,East,85,0.0,1.0,92,0.00,,,0.00,Wunderground v.1.15,2013-03-25 06:53:00,
2013-03-25 02:54:00,36.4,34.3,29.52,East,84,1.0,1.0,92,0.00,,,0.00,Wunderground v.1.15,2013-03-25 06:54:00,
2013-03-25 02:55:00,36.4,34.3,29.52,North,356,1.0,1.0,92,0.00,,,0.00,Wunderground v.1.15,2013-03-25 06:55:00,
2013-03-25 02:57:00,36.4,34.3,29.52,North,356,0.0,1.0,92,0.00,,,0.00,Wunderground v.1.15,2013-03-25 06:57:00,
2013-03-25 02:58:00,36.4,34.3,29.52,North,356,0.0,1.0,92,0.00,,,0.00,Wunderground v.1.15,2013-03-25 06:58:00,
2013-03-25 02:59:00,36.4,34.3,29.52,North,356,0.0,1.0,92,0.00,,,0.00,Wunderground v.1.15,2013-03-25 06:59:00,
2013-03-25 03:00:00,36.5,34.4,29.52,North,357,0.0,0.0,92,0.00,,,0.00,Wunderground v.1.15,2013-03-25 07:00:00,
2013-03-25 03:02:00,36.5,34.4,29.52,North,356,0.0,0.0,92,0.00,,,0.00,Wunderground v.1.15,2013-03-25 07:02:00,
2013-03-25 03:04:00,36.5,34.4,29.52,North,356,0.0,0.0,92,0.00,,,0.00,Wunderground v.1.15,2013-03-25 07:04:00,
2013-03-25 03:05:00,36.5,34.4,29.52,North,357,0.0,0.0,92,0.00,,,0.00,Wunderground v.1.15,2013-03-25 07:05:00,
2013-03-25 03:08:00,36.5,34.4,29.52,North,356,0.0,0.0,92,0.00,,,0.00,Wunderground v.1.15,2013-03-25 07:08:00,
2013-03-25 03:09:00,36.5,34.4,29.52,North,356,0.0,0.0,92,0.00,,,0.00,Wunderground v.1.15,2013-03-25 07:09:00,
2013-03-25 03:10:00,36.5,34.4,29.52,North,356,0.0,0.0,92,0.00,,,0.00,Wunderground v.1.15,2013-03-25 07:10:00,
2013-03-25 03:13:00,36.4,34.3,29.52,North,356,0.0,0.0,92,0.00,,,0.00,Wunderground v.1.15,2013-03-25 07:13:00,
2013-03-25 03:14:00,36.5,34.4,29.52,North,356,0.0,0.0,92,0.00,,,0.00,Wunderground v.1.15,2013-03-25 07:14:00,
2013-03-25 03:15:00,36.4,34.3,29.52,North,356,0.0,0.0,92,0.00,,,0.00,Wunderground v.1.15,2013-03-25 07:15:00,
2013-03-25 03:18:00,36.4,34.3,29.52,North,357,0.0,0.0,92,0.00,,,0.00,Wunderground v.1.15,2013-03-25 07:18:00,
2013-03-25 03:19:00,36.4,34.3,29.52,North,357,0.0,0.0,92,0.00,,,0.00,Wunderground v.1.15,2013-03-25 07:19:00,
2013-03-25 03:20:00,36.4,34.3,29.52,North,356,0.0,0.0,92,0.00,,,0.00,Wunderground v.1.15,2013-03-25 07:20:00,
2013-03-25 03:23:00,36.5,34.4,29.52,North,356,0.0,0.0,92,0.00,,,0.00,Wunderground v.1.15,2013-03-25 07:23:00,
2013-03-25 03:24:00,36.5,34.4,29.52,North,355,0.0,0.0,92,0.00,,,0.00,Wunderground v.1.15,2013-03-25 07:24:00,
2013-03-25 03:25:00,36.5,34.4,29.52,North,356,0.0,0.0,92,0.00,,,0.00,Wunderground v.1.15,2013-03-25 07:25:00,
2013-03-25 03:28:00,36.5,34.4,29.52,SW,236,0.0,1.0,92,0.00,,,0.00,Wunderground v.1.15,2013-03-25 07:28:00,
2013-03-25 03:29:00,36.5,34.4,29.52,SW,236,0.0,1.0,92,0.00,,,0.00,Wunderground v.1.15,2013-03-25 07:29:00,
2013-03-25 03:30:00,36.5,34.4,29.52,SW,236,0.0,0.0,92,0.00,,,0.00,Wunderground v.1.15,2013-03-25 07:30:00,
2013-03-25 03:33:00,36.5,34.7,29.52,SW,236,0.0,1.0,93,0.00,,,0.00,Wunderground v.1.15,2013-03-25 07:33:00,
2013-03-25 03:34:00,36.5,34.7,29.52,SW,236,0.0,1.0,93,0.00,,,0.00,Wunderground v.1.15,2013-03-25 07:34:00,
2013-03-25 03:35:00,36.5,34.7,29.52,West,269,2.0,2.0,93,0.00,,,0.00,Wunderground v.1.15,2013-03-25 07:35:00,
2013-03-25 03:39:00,36.5,34.7,29.53,SW,228,0.0,2.0,93,0.00,,,0.00,Wunderground v.1.15,2013-03-25 07:39:00,
2013-03-25 03:40:00,36.5,34.7,29.52,SW,233,1.0,2.0,93,0.00,,,0.00,Wunderground v.1.15,2013-03-25 07:40:00,
2013-03-25 03:44:00,36.5,34.7,29.52,WSW,250,0.0,2.0,93,0.00,,,0.00,Wunderground v.1.15,2013-03-25 07:44:00,
2013-03-25 03:45:00,36.5,34.7,29.52,WSW,250,0.0,2.0,93,0.00,,,0.00,Wunderground v.1.15,2013-03-25 07:45:00,
2013-03-25 03:46:00,36.5,34.7,29.52,WSW,250,0.0,2.0,93,0.00,,,0.00,Wunderground v.1.15,2013-03-25 07:46:00,
2013-03-25 03:49:00,36.5,34.7,29.52,SW,228,0.0,2.0,93,0.00,,,0.00,Wunderground v.1.15,2013-03-25 07:49:00,
2013-03-25 03:50:00,36.5,34.7,29.52,SW,227,0.0,0.0,93,0.00,,,0.00,Wunderground v.1.15,2013-03-25 07:50:00,
2013-03-25 03:51:00,36.5,34.7,29.52,SW,227,0.0,0.0,93,0.00,,,0.00,Wunderground v.1.15,2013-03-25 07:51:00,
2013-03-25 03:54:00,36.5,34.7,29.53,SW,226,0.0,1.0,93,0.00,,,0.00,Wunderground v.1.15,2013-03-25 07:54:00,
2013-03-25 03:55:00,36.5,34.7,29.53,SW,226,0.0,1.0,93,0.00,,,0.00,Wunderground v.1.15,2013-03-25 07:55:00,
2013-03-25 03:56:00,36.5,34.7,29.53,SW,226,0.0,1.0,93,0.00,,,0.00,Wunderground v.1.15,2013-03-25 07:56:00,
2013-03-25 03:59:00,36.5,34.7,29.53,WSW,245,1.0,1.0,93,0.00,,,0.00,Wunderground v.1.15,2013-03-25 07:59:00,
2013-03-25 04:00:00,36.5,34.7,29.53,SW,235,1.0,1.0,93,0.00,,,0.00,Wunderground v.1.15,2013-03-25 08:00:00,
2013-03-25 04:01:00,36.5,34.7,29.53,SW,234,1.0,1.0,93,0.00,,,0.00,Wunderground v.1.15,2013-03-25 08:01:00,
2013-03-25 04:02:00,36.5,34.7,29.53,SW,234,0.0,1.0,93,0.00,,,0.00,Wunderground v.1.15,2013-03-25 08:02:00,
2013-03-25 04:04:00,36.4,34.6,29.53,West,274,2.0,2.0,93,0.00,,,0.00,Wunderground v.1.15,2013-03-25 08:04:00,
2013-03-25 04:06:00,36.5,34.7,29.53,West,276,1.0,2.0,93,0.00,,,0.00,Wunderground v.1.15,2013-03-25 08:06:00,
2013-03-25 04:07:00,36.5,34.7,29.53,West,262,0.0,2.0,93,0.00,,,0.00,Wunderground v.1.15,2013-03-25 08:07:00,
2013-03-25 04:09:00,36.4,34.6,29.53,West,262,0.0,2.0,93,0.00,,,0.00,Wunderground v.1.15,2013-03-25 08:09:00,
2013-03-25 04:11:00,36.4,34.6,29.53,West,259,0.0,2.0,93,0.00,,,0.00,Wunderground v.1.15,2013-03-25 08:11:00,
2013-03-25 04:12:00,36.4,34.8,29.53,WSW,258,0.0,2.0,94,0.00,,,0.00,Wunderground v.1.15,2013-03-25 08:12:00,
2013-03-25 04:14:00,36.4,34.8,29.53,West,259,0.0,2.0,94,0.00,,,0.00,Wunderground v.1.15,2013-03-25 08:14:00,
2013-03-25 04:16:00,36.4,34.8,29.53,West,259,0.0,2.0,94,0.00,,,0.00,Wunderground v.1.15,2013-03-25 08:16:00,
2013-03-25 04:17:00,36.4,34.8,29.53,West,259,0.0,2.0,94,0.00,,,0.00,Wunderground v.1.15,2013-03-25 08:17:00,
2013-03-25 04:20:00,36.4,34.8,29.53,WSW,252,0.0,0.0,94,0.00,,,0.00,Wunderground v.1.15,2013-03-25 08:20:00,
2013-03-25 04:21:00,36.4,34.8,29.52,WSW,252,0.0,0.0,94,0.00,,,0.00,Wunderground v.1.15,2013-03-25 08:21:00,
2013-03-25 04:22:00,36.4,34.8,29.52,WSW,252,0.0,0.0,94,0.00,,,0.00,Wunderground v.1.15,2013-03-25 08:22:00,
2013-03-25 04:25:00,36.4,34.8,29.52,WSW,252,0.0,0.0,94,0.00,,,0.00,Wunderground v.1.15,2013-03-25 08:25:00,
2013-03-25 04:26:00,36.4,34.8,29.52,WSW,251,0.0,1.0,94,0.00,,,0.00,Wunderground v.1.15,2013-03-25 08:26:00,
2013-03-25 04:27:00,36.4,34.8,29.52,WSW,251,0.0,1.0,94,0.00,,,0.00,Wunderground v.1.15,2013-03-25 08:27:00,
2013-03-25 04:28:00,36.4,34.8,29.52,WSW,251,0.0,1.0,94,0.00,,,0.00,Wunderground v.1.15,2013-03-25 08:28:00,
2013-03-25 04:30:00,36.4,34.8,29.52,WSW,252,0.0,0.0,94,0.00,,,0.00,Wunderground v.1.15,2013-03-25 08:30:00,
2013-03-25 04:32:00,36.3,34.7,29.52,WSW,252,0.0,0.0,94,0.00,,,0.00,Wunderground v.1.15,2013-03-25 08:32:00,
2013-03-25 04:33:00,36.3,34.7,29.52,WSW,251,0.0,0.0,94,0.00,,,0.00,Wunderground v.1.15,2013-03-25 08:33:00,
2013-03-25 04:35:00,36.3,34.7,29.52,WSW,251,0.0,0.0,94,0.00,,,0.00,Wunderground v.1.15,2013-03-25 08:35:00,
2013-03-25 04:37:00,36.3,34.7,29.52,WSW,252,0.0,0.0,94,0.00,,,0.00,Wunderground v.1.15,2013-03-25 08:37:00,
2013-03-25 04:38:00,36.4,34.8,29.52,WSW,252,0.0,0.0,94,0.00,,,0.00,Wunderground v.1.15,2013-03-25 08:38:00,
2013-03-25 04:40:00,36.4,34.8,29.52,WSW,251,0.0,0.0,94,0.00,,,0.00,Wunderground v.1.15,2013-03-25 08:40:00,
2013-03-25 04:42:00,36.4,34.8,29.52,WSW,252,0.0,0.0,94,0.00,,,0.00,Wunderground v.1.15,2013-03-25 08:42:00,
2013-03-25 04:43:00,36.4,34.8,29.52,WSW,252,0.0,0.0,94,0.00,,,0.00,Wunderground v.1.15,2013-03-25 08:43:00,
2013-03-25 04:45:00,36.4,34.8,29.52,SW,228,1.0,1.0,94,0.00,,,0.00,Wunderground v.1.15,2013-03-25 08:45:00,
2013-03-25 04:47:00,36.3,34.7,29.52,SW,228,0.0,1.0,94,0.00,,,0.00,Wunderground v.1.15,2013-03-25 08:47:00,
2013-03-25 04:48:00,36.3,34.7,29.52,SW,228,0.0,1.0,94,0.00,,,0.00,Wunderground v.1.15,2013-03-25 08:48:00,
2013-03-25 04:50:00,36.3,34.7,29.52,SW,228,0.0,0.0,94,0.00,,,0.00,Wunderground v.1.15,2013-03-25 08:50:00,
2013-03-25 04:52:00,36.3,35.0,29.52,SW,228,0.0,0.0,95,0.00,,,0.00,Wunderground v.1.15,2013-03-25 08:52:00,
2013-03-25 04:53:00,36.3,35.0,29.52,SW,228,0.0,0.0,95,0.00,,,0.00,Wunderground v.1.15,2013-03-25 08:53:00,
2013-03-25 04:54:00,36.3,35.0,29.52,SW,228,0.0,0.0,95,0.00,,,0.00,Wunderground v.1.15,2013-03-25 08:54:00,
2013-03-25 04:55:00,36.3,35.0,29.52,SW,228,0.0,0.0,95,0.00,,,0.00,Wunderground v.1.15,2013-03-25 08:55:00,
2013-03-25 04:57:00,36.3,35.0,29.52,SW,228,0.0,0.0,95,0.00,,,0.00,Wunderground v.1.15,2013-03-25 08:57:00,
2013-03-25 04:58:00,36.3,35.0,29.52,SW,228,0.0,0.0,95,0.00,,,0.00,Wunderground v.1.15,2013-03-25 08:58:00,
2013-03-25 04:59:00,36.3,35.0,29.52,SW,228,0.0,0.0,95,0.00,,,0.00,Wunderground v.1.15,2013-03-25 08:59:00,
2013-03-25 05:00:00,36.3,35.0,29.52,SW,228,0.0,0.0,95,0.00,,,0.00,Wunderground v.1.15,2013-03-25 09:00:00,
2013-03-25 05:03:00,36.3,35.0,29.52,SW,228,0.0,0.0,95,0.00,,,0.00,Wunderground v.1.15,2013-03-25 09:03:00,
2013-03-25 05:04:00,36.3,35.0,29.53,SW,228,0.0,0.0,95,0.00,,,0.00,Wunderground v.1.15,2013-03-25 09:04:00,
2013-03-25 05:05:00,36.3,35.0,29.52,SW,228,0.0,0.0,95,0.00,,,0.00,Wunderground v.1.15,2013-03-25 09:05:00,
2013-03-25 05:08:00,36.3,35.0,29.53,SW,228,0.0,0.0,95,0.00,,,0.00,Wunderground v.1.15,2013-03-25 09:08:00,
2013-03-25 05:09:00,36.3,35.0,29.52,SW,228,0.0,0.0,95,0.00,,,0.00,Wunderground v.1.15,2013-03-25 09:09:00,
2013-03-25 05:10:00,36.3,35.0,29.53,SW,228,0.0,0.0,95,0.00,,,0.00,Wunderground v.1.15,2013-03-25 09:10:00,
2013-03-25 05:13:00,36.3,35.0,29.53,SW,228,0.0,0.0,95,0.00,,,0.00,Wunderground v.1.15,2013-03-25 09:13:00,
2013-03-25 05:14:00,36.4,35.1,29.53,SW,228,0.0,0.0,95,0.00,,,0.00,Wunderground v.1.15,2013-03-25 09:14:00,
2013-03-25 05:16:00,36.3,35.0,29.53,SW,228,0.0,0.0,95,0.00,,,0.00,Wunderground v.1.15,2013-03-25 09:16:00,
2013-03-25 05:18:00,36.3,35.0,29.53,SW,228,0.0,1.0,95,0.00,,,0.00,Wunderground v.1.15,2013-03-25 09:18:00,
2013-03-25 05:19:00,36.4,35.1,29.53,SW,228,0.0,1.0,95,0.00,,,0.00,Wunderground v.1.15,2013-03-25 09:19:00,
2013-03-25 05:21:00,36.3,35.0,29.53,SW,228,0.0,1.0,95,0.00,,,0.00,Wunderground v.1.15,2013-03-25 09:21:00,
2013-03-25 05:23:00,36.3,35.0,29.53,SW,228,0.0,1.0,95,0.00,,,0.00,Wunderground v.1.15,2013-03-25 09:23:00,
2013-03-25 05:24:00,36.3,35.0,29.53,SW,228,0.0,1.0,95,0.00,,,0.00,Wunderground v.1.15,2013-03-25 09:24:00,
2013-03-25 05:26:00,36.3,35.0,29.53,SW,228,0.0,1.0,95,0.00,,,0.00,Wunderground v.1.15,2013-03-25 09:26:00,
2013-03-25 05:28:00,36.3,35.0,29.53,NW,323,0.0,1.0,95,0.00,,,0.00,Wunderground v.1.15,2013-03-25 09:28:00,
2013-03-25 05:29:00,36.3,35.0,29.53,West,270,0.0,1.0,95,0.00,,,0.00,Wunderground v.1.15,2013-03-25 09:29:00,
2013-03-25 05:31:00,36.3,35.0,29.53,South,170,0.0,2.0,95,0.00,,,0.00,Wunderground v.1.15,2013-03-25 09:31:00,
2013-03-25 05:33:00,36.3,35.0,29.53,South,171,0.0,2.0,95,0.00,,,0.00,Wunderground v.1.15,2013-03-25 09:33:00,
2013-03-25 05:34:00,36.3,35.0,29.53,South,170,0.0,2.0,95,0.00,,,0.00,Wunderground v.1.15,2013-03-25 09:34:00,
2013-03-25 05:37:00,36.3,35.0,29.53,ENE,65,1.0,2.0,95,0.00,,,0.00,Wunderground v.1.15,2013-03-25 09:37:00,
2013-03-25 05:38:00,36.3,35.0,29.53,ENE,65,0.0,2.0,95,0.00,,,0.00,Wunderground v.1.15,2013-03-25 09:38:00,
2013-03-25 05:39:00,36.3,35.0,29.53,WNW,288,1.0,2.0,95,0.00,,,0.00,Wunderground v.1.15,2013-03-25 09:39:00,
2013-03-25 05:42:00,36.3,35.0,29.53,WNW,302,2.0,2.0,95,0.00,,,0.00,Wunderground v.1.15,2013-03-25 09:42:00,
2013-03-25 05:44:00,36.3,35.0,29.53,SW,222,1.0,4.0,95,0.00,,,0.00,Wunderground v.1.15,2013-03-25 09:44:00,
2013-03-25 05:45:00,36.3,35.0,29.53,SW,223,0.0,4.0,95,0.00,,,0.00,Wunderground v.1.15,2013-03-25 09:45:00,
2013-03-25 05:47:00,36.3,35.0,29.53,ENE,58,0.0,4.0,95,0.00,,,0.00,Wunderground v.1.15,2013-03-25 09:47:00,
2013-03-25 05:49:00,36.3,35.0,29.53,NE,51,2.0,4.0,95,0.00,,,0.00,Wunderground v.1.15,2013-03-25 09:49:00,
2013-03-25 05:50:00,36.3,35.0,29.53,NNE,13,0.0,1.0,95,0.00,,,0.00,Wunderground v.1.15,2013-03-25 09:50:00,
2013-03-25 05:52:00,36.3,35.0,29.53,WNW,293,0.0,1.0,95,0.00,,,0.00,Wunderground v.1.15,2013-03-25 09:52:00,
2013-03-25 05:54:00,36.3,35.0,29.53,SSW,208,0.0,1.0,95,0.00,,,0.00,Wunderground v.1.15,2013-03-25 09:54:00,
2013-03-25 05:55:00,36.3,35.0,29.53,SSW,210,0.0,1.0,95,0.00,,,0.00,Wunderground v.1.15,2013-03-25 09:55:00,
2013-03-25 05:58:00,36.3,35.0,29.53,ESE,103,0.0,1.0,95,0.00,,,0.00,Wunderground v.1.15,2013-03-25 09:58:00,
2013-03-25 05:59:00,36.3,35.0,29.53,South,191,0.0,1.0,95,0.00,,,0.00,Wunderground v.1.15,2013-03-25 09:59:00,
2013-03-25 06:00:00,36.3,35.0,29.53,South,191,0.0,0.0,95,0.00,,,0.00,Wunderground v.1.15,2013-03-25 10:00:00,
2013-03-25 06:01:00,36.3,35.0,29.53,South,191,0.0,0.0,95,0.00,,,0.00,Wunderground v.1.15,2013-03-25 10:01:00,
2013-03-25 06:03:00,36.3,35.0,29.53,WSW,245,1.0,1.0,95,0.00,,,0.00,Wunderground v.1.15,2013-03-25 10:03:00,
2013-03-25 06:04:00,36.3,35.0,29.53,WSW,245,0.0,1.0,95,0.00,,,0.00,Wunderground v.1.15,2013-03-25 10:04:00,
2013-03-25 06:05:00,36.3,35.0,29.53,WSW,245,0.0,1.0,95,0.00,,,0.00,Wunderground v.1.15,2013-03-25 10:05:00,
2013-03-25 06:06:00,36.3,35.0,29.52,WSW,245,0.0,1.0,95,0.00,,,0.00,Wunderground v.1.15,2013-03-25 10:06:00,
2013-03-25 06:08:00,36.3,35.3,29.52,WSW,245,0.0,1.0,96,0.00,,,0.00,Wunderground v.1.15,2013-03-25 10:08:00,
2013-03-25 06:09:00,36.3,35.3,29.52,WSW,245,0.0,1.0,96,0.00,,,0.00,Wunderground v.1.15,2013-03-25 10:09:00,
2013-03-25 06:10:00,36.3,35.3,29.52,WSW,245,0.0,0.0,96,0.00,,,0.00,Wunderground v.1.15,2013-03-25 10:10:00,
2013-03-25 06:12:00,36.3,35.3,29.52,WSW,245,0.0,0.0,96,0.00,,,0.00,Wunderground v.1.15,2013-03-25 10:12:00,
2013-03-25 06:13:00,36.3,35.3,29.53,WSW,245,0.0,1.0,96,0.00,,,0.00,Wunderground v.1.15,2013-03-25 10:13:00,
2013-03-25 06:14:00,36.4,35.4,29.53,WSW,245,0.0,1.0,96,0.00,,,0.00,Wunderground v.1.15,2013-03-25 10:14:00,
2013-03-25 06:15:00,36.4,35.4,29.52,WSW,245,0.0,1.0,96,0.00,,,0.00,Wunderground v.1.15,2013-03-25 10:15:00,
2013-03-25 06:17:00,36.4,35.4,29.53,WSW,245,0.0,1.0,96,0.00,,,0.00,Wunderground v.1.15,2013-03-25 10:17:00,
2013-03-25 06:18:00,36.4,35.4,29.52,WSW,245,0.0,1.0,96,0.00,,,0.00,Wunderground v.1.15,2013-03-25 10:18:00,
2013-03-25 06:19:00,36.4,35.4,29.52,WSW,245,0.0,1.0,96,0.00,,,0.00,Wunderground v.1.15,2013-03-25 10:19:00,
2013-03-25 06:21:00,36.4,35.4,29.52,WSW,245,0.0,1.0,96,0.00,,,0.00,Wunderground v.1.15,2013-03-25 10:21:00,
2013-03-25 06:22:00,36.4,35.4,29.53,WSW,245,0.0,1.0,96,0.00,,,0.00,Wunderground v.1.15,2013-03-25 10:22:00,
2013-03-25 06:23:00,36.3,35.3,29.53,WSW,245,1.0,1.0,96,0.00,,,0.00,Wunderground v.1.15,2013-03-25 10:23:00,
2013-03-25 06:24:00,36.3,35.3,29.52,WSW,245,0.0,1.0,96,0.00,,,0.00,Wunderground v.1.15,2013-03-25 10:24:00,
2013-03-25 06:26:00,36.3,35.3,29.52,WSW,245,0.0,1.0,96,0.00,,,0.00,Wunderground v.1.15,2013-03-25 10:26:00,
2013-03-25 06:27:00,36.3,35.3,29.53,WSW,245,0.0,1.0,96,0.00,,,0.00,Wunderground v.1.15,2013-03-25 10:27:00,
2013-03-25 06:28:00,36.3,35.3,29.52,WSW,245,0.0,1.0,96,0.00,,,0.00,Wunderground v.1.15,2013-03-25 10:28:00,
2013-03-25 06:29:00,36.4,35.4,29.52,WSW,245,0.0,1.0,96,0.00,,,0.00,Wunderground v.1.15,2013-03-25 10:29:00,
2013-03-25 06:31:00,36.4,35.4,29.53,WSW,245,0.0,0.0,96,0.00,,,0.00,Wunderground v.1.15,2013-03-25 10:31:00,
2013-03-25 06:33:00,36.4,35.4,29.53,WSW,245,0.0,0.0,96,0.00,,,0.00,Wunderground v.1.15,2013-03-25 10:33:00,
2013-03-25 06:34:00,36.4,35.4,29.53,WSW,245,0.0,0.0,96,0.00,,,0.00,Wunderground v.1.15,2013-03-25 10:34:00,
2013-03-25 06:36:00,36.4,35.4,29.53,WSW,245,0.0,0.0,96,0.00,,,0.00,Wunderground v.1.15,2013-03-25 10:36:00,
2013-03-25 06:38:00,36.4,35.4,29.53,WSW,245,0.0,0.0,96,0.00,,,0.00,Wunderground v.1.15,2013-03-25 10:38:00,
2013-03-25 06:39:00,36.4,35.4,29.53,WSW,245,0.0,0.0,96,0.00,,,0.00,Wunderground v.1.15,2013-03-25 10:39:00,
2013-03-25 06:42:00,36.5,35.5,29.53,WSW,245,0.0,1.0,96,0.00,,,0.00,Wunderground v.1.15,2013-03-25 10:42:00,
2013-03-25 06:43:00,36.5,35.5,29.53,WSW,245,0.0,1.0,96,0.00,,,0.00,Wunderground v.1.15,2013-03-25 10:43:00,
2013-03-25 06:44:00,36.5,35.5,29.53,WSW,245,0.0,1.0,96,0.00,,,0.00,Wunderground v.1.15,2013-03-25 10:44:00,
2013-03-25 06:47:00,36.5,35.5,29.53,WSW,245,0.0,1.0,96,0.00,,,0.00,Wunderground v.1.15,2013-03-25 10:47:00,
2013-03-25 06:49:00,36.4,35.4,29.53,WSW,245,0.0,1.0,96,0.00,,,0.00,Wunderground v.1.15,2013-03-25 10:49:00,
2013-03-25 06:50:00,36.5,35.5,29.53,WSW,245,0.0,0.0,96,0.00,,,0.00,Wunderground v.1.15,2013-03-25 10:50:00,
2013-03-25 06:52:00,36.5,35.5,29.53,WSW,245,0.0,1.0,96,0.00,,,0.00,Wunderground v.1.15,2013-03-25 10:52:00,
2013-03-25 06:54:00,36.5,35.5,29.53,WSW,245,0.0,1.0,96,0.00,,,0.00,Wunderground v.1.15,2013-03-25 10:54:00,
2013-03-25 06:55:00,36.5,35.5,29.53,WSW,245,0.0,1.0,96,0.00,,,0.00,Wunderground v.1.15,2013-03-25 10:55:00,
2013-03-25 06:58:00,36.5,35.5,29.53,WSW,245,0.0,1.0,96,0.00,,,0.00,Wunderground v.1.15,2013-03-25 10:58:00,
2013-03-25 06:59:00,36.5,35.5,29.53,WSW,245,0.0,2.0,96,0.00,,,0.00,Wunderground v.1.15,2013-03-25 10:59:00,
2013-03-25 07:01:00,36.4,35.4,29.53,WSW,245,0.0,0.0,96,0.00,,,0.00,Wunderground v.1.15,2013-03-25 11:01:00,
2013-03-25 07:03:00,36.4,35.4,29.53,WSW,245,0.0,0.0,96,0.00,,,0.00,Wunderground v.1.15,2013-03-25 11:03:00,
2013-03-25 07:04:00,36.5,35.5,29.53,WSW,245,0.0,0.0,96,0.00,,,0.00,Wunderground v.1.15,2013-03-25 11:04:00,
2013-03-25 07:06:00,36.5,35.5,29.53,WSW,245,0.0,0.0,96,0.00,,,0.00,Wunderground v.1.15,2013-03-25 11:06:00,
2013-03-25 07:08:00,36.5,35.5,29.53,WSW,245,0.0,0.0,96,0.00,,,0.00,Wunderground v.1.15,2013-03-25 11:08:00,
2013-03-25 07:09:00,36.5,35.5,29.53,WSW,245,0.0,0.0,96,0.00,,,0.00,Wunderground v.1.15,2013-03-25 11:09:00,
2013-03-25 07:10:00,36.5,35.5,29.53,WSW,245,0.0,0.0,96,0.00,,,0.00,Wunderground v.1.15,2013-03-25 11:10:00,
2013-03-25 07:12:00,36.5,35.5,29.53,WSW,245,0.0,0.0,96,0.00,,,0.00,Wunderground v.1.15,2013-03-25 11:12:00,
2013-03-25 07:14:00,36.5,35.5,29.53,WSW,245,0.0,0.0,96,0.00,,,0.00,Wunderground v.1.15,2013-03-25 11:14:00,
2013-03-25 07:15:00,36.5,35.5,29.53,WSW,245,0.0,0.0,96,0.00,,,0.00,Wunderground v.1.15,2013-03-25 11:15:00,
2013-03-25 07:17:00,36.5,35.5,29.53,WSW,245,0.0,0.0,96,0.00,,,0.00,Wunderground v.1.15,2013-03-25 11:17:00,
2013-03-25 07:19:00,36.5,35.5,29.53,WSW,245,0.0,0.0,96,0.00,,,0.00,Wunderground v.1.15,2013-03-25 11:19:00,
2013-03-25 07:20:00,36.5,35.5,29.53,WSW,245,0.0,0.0,96,0.00,,,0.00,Wunderground v.1.15,2013-03-25 11:20:00,
2013-03-25 07:21:00,36.5,35.5,29.53,WSW,245,0.0,0.0,96,0.00,,,0.00,Wunderground v.1.15,2013-03-25 11:21:00,
2013-03-25 07:24:00,36.5,35.5,29.53,WSW,245,0.0,1.0,96,0.00,,,0.00,Wunderground v.1.15,2013-03-25 11:24:00,
2013-03-25 07:25:00,36.5,35.5,29.53,WSW,245,0.0,1.0,96,0.00,,,0.00,Wunderground v.1.15,2013-03-25 11:25:00,
2013-03-25 07:27:00,36.5,35.5,29.53,WSW,245,0.0,1.0,96,0.00,,,0.00,Wunderground v.1.15,2013-03-25 11:27:00,
2013-03-25 07:29:00,36.5,35.5,29.53,WSW,245,0.0,1.0,96,0.00,,,0.00,Wunderground v.1.15,2013-03-25 11:29:00,
2013-03-25 07:30:00,36.6,35.6,29.53,WSW,245,0.0,0.0,96,0.00,,,0.00,Wunderground v.1.15,2013-03-25 11:30:00,
2013-03-25 07:32:00,36.6,35.6,29.53,WSW,245,0.0,0.0,96,0.00,,,0.00,Wunderground v.1.15,2013-03-25 11:32:00,
2013-03-25 07:34:00,36.6,35.6,29.53,WSW,245,0.0,0.0,96,0.00,,,0.00,Wunderground v.1.15,2013-03-25 11:34:00,
2013-03-25 07:35:00,36.6,35.6,29.53,WSW,245,0.0,0.0,96,0.00,,,0.00,Wunderground v.1.15,2013-03-25 11:35:00,
2013-03-25 07:37:00,36.7,35.7,29.53,WSW,245,0.0,0.0,96,0.00,,,0.00,Wunderground v.1.15,2013-03-25 11:37:00,
2013-03-25 07:39:00,36.7,35.7,29.53,WSW,245,0.0,0.0,96,0.00,,,0.00,Wunderground v.1.15,2013-03-25 11:39:00,
2013-03-25 07:40:00,36.7,35.7,29.53,WSW,245,0.0,0.0,96,0.00,,,0.00,Wunderground v.1.15,2013-03-25 11:40:00,
2013-03-25 07:41:00,36.7,35.7,29.53,WSW,245,0.0,0.0,96,0.00,,,0.00,Wunderground v.1.15,2013-03-25 11:41:00,
2013-03-25 07:42:00,36.7,35.7,29.53,WSW,245,0.0,1.0,96,0.00,,,0.00,Wunderground v.1.15,2013-03-25 11:42:00,
2013-03-25 07:44:00,36.7,35.7,29.53,WSW,245,0.0,1.0,96,0.00,,,0.00,Wunderground v.1.15,2013-03-25 11:44:00,
2013-03-25 07:45:00,36.7,35.7,29.53,WSW,245,0.0,1.0,96,0.00,,,0.00,Wunderground v.1.15,2013-03-25 11:45:00,
2013-03-25 07:46:00,36.7,35.7,29.53,WSW,245,0.0,1.0,96,0.00,,,0.00,Wunderground v.1.15,2013-03-25 11:46:00,
2013-03-25 07:48:00,36.7,35.7,29.53,WSW,245,0.0,1.0,96,0.00,,,0.00,Wunderground v.1.15,2013-03-25 11:48:00,
2013-03-25 07:49:00,36.7,35.7,29.53,WSW,245,0.0,1.0,96,0.00,,,0.00,Wunderground v.1.15,2013-03-25 11:49:00,
2013-03-25 07:50:00,36.7,35.7,29.53,WSW,245,0.0,0.0,96,0.00,,,0.00,Wunderground v.1.15,2013-03-25 11:50:00,
2013-03-25 07:51:00,36.8,35.8,29.53,WSW,245,0.0,0.0,96,0.00,,,0.00,Wunderground v.1.15,2013-03-25 11:51:00,
2013-03-25 07:53:00,36.8,35.8,29.53,WSW,245,0.0,1.0,96,0.00,,,0.00,Wunderground v.1.15,2013-03-25 11:53:00,
2013-03-25 07:55:00,36.8,35.8,29.53,WSW,245,0.0,1.0,96,0.00,,,0.00,Wunderground v.1.15,2013-03-25 11:55:00,
2013-03-25 07:56:00,36.8,35.8,29.53,WSW,245,0.0,1.0,96,0.00,,,0.00,Wunderground v.1.15,2013-03-25 11:56:00,
2013-03-25 07:58:00,36.8,35.8,29.53,WSW,245,0.0,1.0,96,0.00,,,0.00,Wunderground v.1.15,2013-03-25 11:58:00,
2013-03-25 08:00:00,36.8,35.8,29.53,WSW,245,0.0,0.0,96,0.00,,,0.00,Wunderground v.1.15,2013-03-25 12:00:00,
2013-03-25 08:02:00,36.9,35.9,29.53,WSW,245,0.0,0.0,96,0.00,,,0.00,Wunderground v.1.15,2013-03-25 12:02:00,
2013-03-25 08:04:00,36.9,35.9,29.52,WSW,245,0.0,0.0,96,0.00,,,0.00,Wunderground v.1.15,2013-03-25 12:04:00,
2013-03-25 08:05:00,37.0,36.0,29.52,WSW,245,0.0,0.0,96,0.00,,,0.00,Wunderground v.1.15,2013-03-25 12:05:00,
2013-03-25 08:07:00,36.9,35.9,29.52,SW,224,0.0,0.0,96,0.00,,,0.00,Wunderground v.1.15,2013-03-25 12:07:00,
2013-03-25 08:09:00,36.9,35.9,29.53,SW,216,0.0,0.0,96,0.00,,,0.00,Wunderground v.1.15,2013-03-25 12:09:00,
2013-03-25 08:10:00,36.9,35.9,29.53,SW,215,0.0,0.0,96,0.00,,,0.00,Wunderground v.1.15,2013-03-25 12:10:00,
2013-03-25 08:11:00,36.9,35.9,29.53,SW,215,0.0,0.0,96,0.00,,,0.00,Wunderground v.1.15,2013-03-25 12:11:00,
2013-03-25 08:14:00,37.0,36.0,29.53,SW,215,0.0,0.0,96,0.00,,,0.00,Wunderground v.1.15,2013-03-25 12:14:00,
2013-03-25 08:15:00,37.1,36.1,29.53,SW,236,0.0,0.0,96,0.00,,,0.00,Wunderground v.1.15,2013-03-25 12:15:00,
2013-03-25 08:17:00,37.1,36.1,29.54,SW,228,0.0,0.0,96,0.00,,,0.00,Wunderground v.1.15,2013-03-25 12:17:00,
2013-03-25 08:19:00,37.1,36.1,29.54,SW,226,0.0,0.0,96,0.00,,,0.00,Wunderground v.1.15,2013-03-25 12:19:00,
2013-03-25 08:20:00,37.2,36.2,29.54,SW,226,0.0,0.0,96,0.00,,,0.00,Wunderground v.1.15,2013-03-25 12:20:00,
2013-03-25 08:21:00,37.1,36.1,29.54,SW,226,0.0,0.0,96,0.00,,,0.00,Wunderground v.1.15,2013-03-25 12:21:00,
2013-03-25 08:22:00,37.2,36.2,29.54,SW,217,0.0,0.0,96,0.00,,,0.00,Wunderground v.1.15,2013-03-25 12:22:00,
2013-03-25 08:24:00,37.2,36.2,29.54,SW,217,0.0,0.0,96,0.00,,,0.00,Wunderground v.1.15,2013-03-25 12:24:00,
2013-03-25 08:25:00,37.3,36.3,29.54,SW,217,0.0,0.0,96,0.00,,,0.00,Wunderground v.1.15,2013-03-25 12:25:00,
2013-03-25 08:27:00,37.3,36.3,29.54,SW,217,0.0,0.0,96,0.00,,,0.00,Wunderground v.1.15,2013-03-25 12:27:00,
2013-03-25 08:29:00,37.3,36.3,29.54,WNW,283,0.0,0.0,96,0.00,,,0.00,Wunderground v.1.15,2013-03-25 12:29:00,
2013-03-25 08:30:00,37.3,36.3,29.54,SSW,210,0.0,0.0,96,0.00,,,0.00,Wunderground v.1.15,2013-03-25 12:30:00,
2013-03-25 08:32:00,37.4,36.4,29.54,SSW,210,1.0,1.0,96,0.00,,,0.00,Wunderground v.1.15,2013-03-25 12:32:00,
2013-03-25 08:34:00,37.4,36.4,29.54,SSW,212,0.0,2.0,96,0.00,,,0.00,Wunderground v.1.15,2013-03-25 12:34:00,
2013-03-25 08:37:00,37.4,36.4,29.54,SSW,212,0.0,2.0,96,0.00,,,0.00,Wunderground v.1.15,2013-03-25 12:37:00,
2013-03-25 08:38:00,37.5,36.5,29.54,WSW,250,0.0,2.0,96,0.00,,,0.00,Wunderground v.1.15,2013-03-25 12:38:00,
2013-03-25 08:39:00,37.5,36.5,29.54,WSW,240,0.0,2.0,96,0.00,,,0.00,Wunderground v.1.15,2013-03-25 12:39:00,
2013-03-25 08:42:00,37.5,36.5,29.54,South,186,0.0,2.0,96,0.00,,,0.00,Wunderground v.1.15,2013-03-25 12:42:00,
2013-03-25 08:43:00,37.5,36.2,29.54,SW,236,0.0,2.0,95,0.00,,,0.00,Wunderground v.1.15,2013-03-25 12:43:00,
2013-03-25 08:44:00,37.5,36.2,29.54,SW,225,0.0,2.0,95,0.00,,,0.00,Wunderground v.1.15,2013-03-25 12:44:00,
2013-03-25 08:47:00,37.5,36.2,29.54,SSW,195,0.0,2.0,95,0.00,,,0.00,Wunderground v.1.15,2013-03-25 12:47:00,
2013-03-25 08:48:00,37.5,36.2,29.54,South,191,1.0,2.0,95,0.00,,,0.00,Wunderground v.1.15,2013-03-25 12:48:00,
2013-03-25 08:49:00,37.5,36.2,29.54,South,191,0.0,2.0,95,0.00,,,0.00,Wunderground v.1.15,2013-03-25 12:49:00,
2013-03-25 08:52:00,37.6,36.3,29.54,SSW,193,0.0,1.0,95,0.00,,,0.00,Wunderground v.1.15,2013-03-25 12:52:00,
2013-03-25 08:53:00,37.6,36.3,29.54,SE,127,1.0,1.0,95,0.00,,,0.00,Wunderground v.1.15,2013-03-25 12:53:00,
2013-03-25 08:55:00,37.7,36.4,29.55,SE,127,0.0,1.0,95,0.00,,,0.00,Wunderground v.1.15,2013-03-25 12:55:00,
2013-03-25 08:57:00,37.8,36.5,29.55,WSW,241,0.0,2.0,95,0.00,,,0.00,Wunderground v.1.15,2013-03-25 12:57:00,
2013-03-25 08:58:00,37.9,36.6,29.55,NE,41,1.0,2.0,95,0.00,,,0.00,Wunderground v.1.15,2013-03-25 12:58:00,
2013-03-25 09:00:00,37.9,36.6,29.55,WSW,255,1.0,2.0,95,0.00,,,0.00,Wunderground v.1.15,2013-03-25 13:00:00,
2013-03-25 09:03:00,38.0,36.7,29.55,SSW,193,0.0,2.0,95,0.00,,,0.00,Wunderground v.1.15,2013-03-25 13:03:00,
2013-03-25 09:04:00,38.0,36.7,29.55,SSW,198,1.0,2.0,95,0.00,,,0.00,Wunderground v.1.15,2013-03-25 13:04:00,
2013-03-25 09:05:00,38.1,36.8,29.55,WNW,291,1.0,2.0,95,0.00,,,0.00,Wunderground v.1.15,2013-03-25 13:05:00,
2013-03-25 09:08:00,38.1,36.5,29.55,SW,221,0.0,3.0,94,0.00,,,0.00,Wunderground v.1.15,2013-03-25 13:08:00,
2013-03-25 09:09:00,38.0,36.4,29.55,SW,221,0.0,3.0,94,0.00,,,0.00,Wunderground v.1.15,2013-03-25 13:09:00,
2013-03-25 09:10:00,38.0,36.4,29.55,SW,226,1.0,2.0,94,0.00,,,0.00,Wunderground v.1.15,2013-03-25 13:10:00,
2013-03-25 09:13:00,38.1,36.5,29.55,WSW,255,2.0,2.0,94,0.00,,,0.00,Wunderground v.1.15,2013-03-25 13:13:00,
2013-03-25 09:14:00,38.1,36.5,29.55,SSW,211,0.0,2.0,94,0.00,,,0.00,Wunderground v.1.15,2013-03-25 13:14:00,
2013-03-25 09:15:00,38.1,36.5,29.55,SSW,212,0.0,2.0,94,0.00,,,0.00,Wunderground v.1.15,2013-03-25 13:15:00,
2013-03-25 09:18:00,38.2,36.6,29.56,SE,136,1.0,2.0,94,0.00,,,0.00,Wunderground v.1.15,2013-03-25 13:18:00,
2013-03-25 09:19:00,38.2,36.6,29.55,WSW,249,3.0,6.0,94,0.00,,,0.00,Wunderground v.1.15,2013-03-25 13:19:00,
2013-03-25 09:21:00,38.1,36.3,29.56,SW,214,2.0,2.0,93,0.00,,,0.00,Wunderground v.1.15,2013-03-25 13:21:00,
2013-03-25 09:23:00,38.1,36.5,29.56,WNW,291,0.0,3.0,94,0.00,,,0.00,Wunderground v.1.15,2013-03-25 13:23:00,
2013-03-25 09:24:00,38.1,36.5,29.56,WNW,291,0.0,3.0,94,0.00,,,0.00,Wunderground v.1.15,2013-03-25 13:24:00,
2013-03-25 09:25:00,38.1,36.5,29.55,NW,304,0.0,3.0,94,0.00,,,0.00,Wunderground v.1.15,2013-03-25 13:25:00,
2013-03-25 09:26:00,38.2,36.6,29.56,West,260,2.0,3.0,94,0.00,,,0.00,Wunderground v.1.15,2013-03-25 13:26:00,
2013-03-25 09:29:00,38.1,36.3,29.56,NE,41,2.0,3.0,93,0.00,,,0.00,Wunderground v.1.15,2013-03-25 13:29:00,
2013-03-25 09:30:00,38.1,36.3,29.56,SW,224,0.0,1.0,93,0.00,,,0.00,Wunderground v.1.15,2013-03-25 13:30:00,
2013-03-25 09:31:00,38.0,36.2,29.56,WNW,300,1.0,3.0,93,0.00,,,0.00,Wunderground v.1.15,2013-03-25 13:31:00,
2013-03-25 09:35:00,37.9,36.1,29.56,West,273,4.0,5.0,93,0.00,,,0.00,Wunderground v.1.15,2013-03-25 13:35:00,
2013-03-25 09:37:00,37.9,36.1,29.55,WSW,255,1.0,6.0,93,0.00,,,0.00,Wunderground v.1.15,2013-03-25 13:37:00,
2013-03-25 09:40:00,37.9,36.3,29.55,SSW,207,0.0,1.0,94,0.00,,,0.00,Wunderground v.1.15,2013-03-25 13:40:00,
2013-03-25 09:42:00,38.0,36.4,29.55,SSW,206,1.0,2.0,94,0.00,,,0.00,Wunderground v.1.15,2013-03-25 13:42:00,
2013-03-25 09:45:00,38.1,36.5,29.55,SSW,199,0.0,2.0,94,0.00,,,0.00,Wunderground v.1.15,2013-03-25 13:45:00,
2013-03-25 09:47:00,38.1,36.5,29.55,NW,307,0.0,2.0,94,0.00,,,0.00,Wunderground v.1.15,2013-03-25 13:47:00,
2013-03-25 09:50:00,38.1,36.5,29.56,SSW,198,0.0,0.0,94,0.00,,,0.00,Wunderground v.1.15,2013-03-25 13:50:00,
2013-03-25 09:52:00,38.2,36.6,29.56,South,186,1.0,2.0,94,0.00,,,0.00,Wunderground v.1.15,2013-03-25 13:52:00,
2013-03-25 09:55:00,38.2,36.4,29.56,SW,231,2.0,5.0,93,0.00,,,0.00,Wunderground v.1.15,2013-03-25 13:55:00,
2013-03-25 09:56:00,38.2,36.4,29.56,WSW,238,1.0,5.0,93,0.00,,,0.00,Wunderground v.1.15,2013-03-25 13:56:00,
2013-03-25 09:57:00,38.2,36.4,29.56,SSW,197,1.0,5.0,93,0.00,,,0.00,Wunderground v.1.15,2013-03-25 13:57:00,
2013-03-25 10:00:00,38.3,36.5,29.56,SSW,195,0.0,1.0,93,0.00,,,0.00,Wunderground v.1.15,2013-03-25 14:00:00,
2013-03-25 10:01:00,38.4,36.6,29.56,WSW,238,2.0,2.0,93,0.00,,,0.00,Wunderground v.1.15,2013-03-25 14:01:00,
2013-03-25 10:02:00,38.4,36.6,29.56,SSW,208,1.0,3.0,93,0.00,,,0.00,Wunderground v.1.15,2013-03-25 14:02:00,
2013-03-25 10:03:00,38.4,36.6,29.56,SSW,206,1.0,3.0,93,0.00,,,0.00,Wunderground v.1.15,2013-03-25 14:03:00,
2013-03-25 10:05:00,38.4,36.6,29.56,NW,304,0.0,3.0,93,0.00,,,0.00,Wunderground v.1.15,2013-03-25 14:05:00,
2013-03-25 10:06:00,38.4,36.6,29.56,SSW,208,1.0,3.0,93,0.00,,,0.00,Wunderground v.1.15,2013-03-25 14:06:00,
2013-03-25 10:07:00,38.4,36.6,29.56,NNE,25,3.0,5.0,93,0.00,,,0.00,Wunderground v.1.15,2013-03-25 14:07:00,
2013-03-25 10:08:00,38.4,36.6,29.56,NW,321,1.0,5.0,93,0.00,,,0.00,Wunderground v.1.15,2013-03-25 14:08:00,
2013-03-25 10:10:00,38.5,36.7,29.56,SSW,212,0.0,1.0,93,0.00,,,0.00,Wunderground v.1.15,2013-03-25 14:10:00,
2013-03-25 10:12:00,38.6,36.8,29.56,SW,219,1.0,2.0,93,0.00,,,0.00,Wunderground v.1.15,2013-03-25 14:12:00,
2013-03-25 10:13:00,38.7,36.9,29.56,SSW,192,1.0,2.0,93,0.00,,,0.00,Wunderground v.1.15,2013-03-25 14:13:00,
2013-03-25 10:15:00,38.8,36.9,29.56,SSW,198,0.0,3.0,93,0.00,,,0.00,Wunderground v.1.15,2013-03-25 14:15:00,
2013-03-25 10:17:00,38.9,37.0,29.56,SSW,212,0.0,3.0,93,0.00,,,0.00,Wunderground v.1.15,2013-03-25 14:17:00,
2013-03-25 10:18:00,39.0,37.1,29.56,SSW,212,0.0,3.0,93,0.00,,,0.00,Wunderground v.1.15,2013-03-25 14:18:00,
2013-03-25 10:21:00,39.1,37.2,29.56,West,273,0.0,1.0,93,0.00,,,0.00,Wunderground v.1.15,2013-03-25 14:21:00,
2013-03-25 10:22:00,39.2,37.3,29.56,SW,215,0.0,1.0,93,0.00,,,0.00,Wunderground v.1.15,2013-03-25 14:22:00,
2013-03-25 10:23:00,39.3,37.4,29.56,SSW,207,1.0,1.0,93,0.00,,,0.00,Wunderground v.1.15,2013-03-25 14:23:00,
2013-03-25 10:27:00,39.6,37.5,29.56,SW,224,0.0,2.0,92,0.00,,,0.00,Wunderground v.1.15,2013-03-25 14:27:00,
2013-03-25 10:29:00,39.6,37.5,29.56,SW,225,1.0,2.0,92,0.00,,,0.00,Wunderground v.1.15,2013-03-25 14:29:00,
2013-03-25 10:32:00,39.9,37.8,29.56,WSW,245,1.0,2.0,92,0.00,,,0.00,Wunderground v.1.15,2013-03-25 14:32:00,
2013-03-25 10:33:00,39.8,37.4,29.56,WSW,245,1.0,2.0,91,0.00,,,0.00,Wunderground v.1.15,2013-03-25 14:33:00,
2013-03-25 10:34:00,39.9,37.5,29.56,North,352,1.0,2.0,91,0.00,,,0.00,Wunderground v.1.15,2013-03-25 14:34:00,
2013-03-25 10:37:00,40.0,37.6,29.56,SSW,212,1.0,2.0,91,0.00,,,0.00,Wunderground v.1.15,2013-03-25 14:37:00,
2013-03-25 10:38:00,40.0,37.6,29.56,WSW,246,1.0,5.0,91,0.00,,,0.00,Wunderground v.1.15,2013-03-25 14:38:00,
2013-03-25 10:39:00,40.0,37.3,29.56,SSW,208,1.0,5.0,90,0.00,,,0.00,Wunderground v.1.15,2013-03-25 14:39:00,
2013-03-25 10:42:00,40.1,37.7,29.56,WSW,255,0.0,2.0,91,0.00,,,0.00,Wunderground v.1.15,2013-03-25 14:42:00,
2013-03-25 10:43:00,40.2,37.8,29.56,WSW,255,0.0,2.0,91,0.00,,,0.00,Wunderground v.1.15,2013-03-25 14:43:00,
2013-03-25 10:44:00,40.3,37.9,29.56,ENE,76,1.0,2.0,91,0.00,,,0.00,Wunderground v.1.15,2013-03-25 14:44:00,
2013-03-25 10:47:00,40.6,38.2,29.56,SSW,198,1.0,3.0,91,0.00,,,0.00,Wunderground v.1.15,2013-03-25 14:47:00,
2013-03-25 10:49:00,40.6,37.6,29.56,SSW,201,2.0,3.0,89,0.00,,,0.00,Wunderground v.1.15,2013-03-25 14:49:00,
2013-03-25 10:53:00,40.6,37.3,29.56,SSW,210,1.0,5.0,88,0.00,,,0.00,Wunderground v.1.15,2013-03-25 14:53:00,
2013-03-25 10:54:00,40.6,37.3,29.56,West,269,3.0,5.0,88,0.00,,,0.00,Wunderground v.1.15,2013-03-25 14:54:00,
2013-03-25 10:58:00,40.7,37.1,29.56,SSW,200,2.0,5.0,87,0.00,,,0.00,Wunderground v.1.15,2013-03-25 14:58:00,
2013-03-25 10:59:00,40.7,37.1,29.56,SE,129,3.0,6.0,87,0.00,,,0.00,Wunderground v.1.15,2013-03-25 14:59:00,
2013-03-25 11:03:00,40.8,37.2,29.56,SE,136,2.0,3.0,87,0.00,,,0.00,Wunderground v.1.15,2013-03-25 15:03:00,
2013-03-25 11:04:00,40.9,37.0,29.56,SW,221,0.0,3.0,86,0.00,,,0.00,Wunderground v.1.15,2013-03-25 15:04:00,
2013-03-25 11:08:00,41.3,37.7,29.56,SSW,193,0.0,3.0,87,0.00,,,0.00,Wunderground v.1.15,2013-03-25 15:08:00,
2013-03-25 11:09:00,41.3,37.4,29.56,ESE,121,1.0,4.0,86,0.00,,,0.00,Wunderground v.1.15,2013-03-25 15:09:00,
2013-03-25 11:13:00,41.8,37.6,29.57,SW,233,4.0,4.0,85,0.00,,,0.00,Wunderground v.1.15,2013-03-25 15:13:00,
2013-03-25 11:14:00,41.9,37.7,29.56,SSW,210,1.0,4.0,85,0.00,,,0.00,Wunderground v.1.15,2013-03-25 15:14:00,
2013-03-25 11:15:00,41.9,37.7,29.56,South,178,2.0,4.0,85,0.00,,,0.00,Wunderground v.1.15,2013-03-25 15:15:00,
2013-03-25 11:18:00,42.3,38.1,29.56,SSW,203,1.0,4.0,85,0.00,,,0.00,Wunderground v.1.15,2013-03-25 15:18:00,
2013-03-25 11:19:00,42.3,38.1,29.56,SW,234,1.0,4.0,85,0.00,,,0.00,Wunderground v.1.15,2013-03-25 15:19:00,
2013-03-25 11:20:00,42.3,38.1,29.56,SW,235,1.0,4.0,85,0.00,,,0.00,Wunderground v.1.15,2013-03-25 15:20:00,
2013-03-25 11:25:00,42.6,37.5,29.56,NNW,341,2.0,7.0,82,0.00,,,0.00,Wunderground v.1.15,2013-03-25 15:25:00,
2013-03-25 11:30:00,42.9,37.2,29.57,SSW,210,1.0,7.0,80,0.00,,,0.00,Wunderground v.1.15,2013-03-25 15:30:00,
2013-03-25 11:34:00,43.0,36.0,29.56,WSW,252,4.0,9.0,76,0.00,,,0.00,Wunderground v.1.15,2013-03-25 15:34:00,
2013-03-25 11:35:00,43.0,36.0,29.56,SW,226,1.0,9.0,76,0.00,,,0.00,Wunderground v.1.15,2013-03-25 15:35:00,
2013-03-25 11:40:00,43.1,35.7,29.57,SW,219,3.0,3.0,75,0.00,,,0.00,Wunderground v.1.15,2013-03-25 15:40:00,
2013-03-25 11:41:00,43.1,36.0,29.56,NW,307,2.0,3.0,76,0.00,,,0.00,Wunderground v.1.15,2013-03-25 15:41:00,
2013-03-25 11:42:00,43.1,36.0,29.56,SSE,153,2.0,3.0,76,0.00,,,0.00,Wunderground v.1.15,2013-03-25 15:42:00,
2013-03-25 11:45:00,43.3,35.9,29.56,SSW,203,0.0,6.0,75,0.00,,,0.00,Wunderground v.1.15,2013-03-25 15:45:00,
2013-03-25 11:46:00,43.5,36.8,29.57,WSW,238,2.0,6.0,77,0.00,,,0.00,Wunderground v.1.15,2013-03-25 15:46:00,
2013-03-25 11:47:00,43.6,36.9,29.56,South,184,2.0,6.0,77,0.00,,,0.00,Wunderground v.1.15,2013-03-25 15:47:00,
2013-03-25 11:50:00,44.0,36.9,29.56,SSW,210,1.0,2.0,76,0.00,,,0.00,Wunderground v.1.15,2013-03-25 15:50:00,
2013-03-25 11:52:00,44.3,36.9,29.56,SW,220,4.0,5.0,75,0.00,,,0.00,Wunderground v.1.15,2013-03-25 15:52:00,
2013-03-25 11:53:00,44.4,36.6,29.56,WSW,245,3.0,5.0,74,0.00,,,0.00,Wunderground v.1.15,2013-03-25 15:53:00,
2013-03-25 11:55:00,44.6,36.8,29.56,South,179,4.0,5.0,74,0.00,,,0.00,Wunderground v.1.15,2013-03-25 15:55:00,
2013-03-25 11:57:00,44.7,36.9,29.56,West,259,2.0,6.0,74,0.00,,,0.00,Wunderground v.1.15,2013-03-25 15:57:00,
2013-03-25 11:58:00,44.8,36.3,29.56,WSW,239,1.0,8.0,72,0.00,,,0.00,Wunderground v.1.15,2013-03-25 15:58:00,
2013-03-25 12:00:00,45.0,37.2,29.55,SW,219,1.0,3.0,74,0.00,,,0.00,Wunderground v.1.15,2013-03-25 16:00:00,
2013-03-25 12:01:00,45.1,37.3,29.56,SSW,193,2.0,3.0,74,0.00,,,0.00,Wunderground v.1.15,2013-03-25 16:01:00,
2013-03-25 12:03:00,45.5,37.7,29.56,SW,217,4.0,4.0,74,0.00,,,0.00,Wunderground v.1.15,2013-03-25 16:03:00,
2013-03-25 12:06:00,45.9,37.4,29.56,SW,224,1.0,4.0,72,0.00,,,0.00,Wunderground v.1.15,2013-03-25 16:06:00,
2013-03-25 12:07:00,46.0,36.8,29.56,SSW,205,4.0,5.0,70,0.00,,,0.00,Wunderground v.1.15,2013-03-25 16:07:00,
2013-03-25 12:08:00,46.0,36.8,29.56,South,187,1.0,10.0,70,0.00,,,0.00,Wunderground v.1.15,2013-03-25 16:08:00,
2013-03-25 12:11:00,46.1,36.5,29.56,South,187,5.0,6.0,69,0.00,,,0.00,Wunderground v.1.15,2013-03-25 16:11:00,
2013-03-25 12:13:00,46.1,35.7,29.56,SSW,203,3.0,9.0,67,0.00,,,0.00,Wunderground v.1.15,2013-03-25 16:13:00,
2013-03-25 12:17:00,46.2,36.2,29.56,South,176,4.0,10.0,68,0.00,,,0.00,Wunderground v.1.15,2013-03-25 16:17:00,
2013-03-25 12:18:00,46.2,36.2,29.56,North,349,1.0,10.0,68,0.00,,,0.00,Wunderground v.1.15,2013-03-25 16:18:00,
2013-03-25 12:23:00,46.5,35.7,29.56,SSW,210,2.0,8.0,66,0.00,,,0.00,Wunderground v.1.15,2013-03-25 16:23:00,
2013-03-25 12:24:00,46.5,35.7,29.56,SW,214,2.0,8.0,66,0.00,,,0.00,Wunderground v.1.15,2013-03-25 16:24:00,
2013-03-25 12:29:00,46.7,36.3,29.56,SSW,200,2.0,8.0,67,0.00,,,0.00,Wunderground v.1.15,2013-03-25 16:29:00,
2013-03-25 12:30:00,46.7,35.6,29.56,South,191,4.0,4.0,65,0.00,,,0.00,Wunderground v.1.15,2013-03-25 16:30:00,
2013-03-25 12:34:00,46.8,34.9,29.56,WSW,249,3.0,4.0,63,0.00,,,0.00,Wunderground v.1.15,2013-03-25 16:34:00,
2013-03-25 12:35:00,46.7,34.4,29.56,SW,215,1.0,4.0,62,0.00,,,0.00,Wunderground v.1.15,2013-03-25 16:35:00,
2013-03-25 12:39:00,46.7,34.8,29.56,SE,138,2.0,12.0,63,0.00,,,0.00,Wunderground v.1.15,2013-03-25 16:39:00,
2013-03-25 12:40:00,46.7,33.5,29.56,North,7,4.0,4.0,60,0.00,,,0.00,Wunderground v.1.15,2013-03-25 16:40:00,
2013-03-25 12:44:00,46.7,34.4,29.55,SW,217,2.0,7.0,62,0.00,,,0.00,Wunderground v.1.15,2013-03-25 16:44:00,
2013-03-25 12:45:00,46.7,34.4,29.55,SW,228,4.0,7.0,62,0.00,,,0.00,Wunderground v.1.15,2013-03-25 16:45:00,
2013-03-25 12:50:00,47.0,33.4,29.55,SSE,150,3.0,4.0,59,0.00,,,0.00,Wunderground v.1.15,2013-03-25 16:50:00,
2013-03-25 12:52:00,47.4,34.2,29.55,SE,124,2.0,4.0,60,0.00,,,0.00,Wunderground v.1.15,2013-03-25 16:52:00,
2013-03-25 12:55:00,48.0,33.5,29.55,South,174,4.0,11.0,57,0.00,,,0.00,Wunderground v.1.15,2013-03-25 16:55:00,
2013-03-25 12:57:00,48.1,33.6,29.55,SSW,209,2.0,11.0,57,0.00,,,0.00,Wunderground v.1.15,2013-03-25 16:57:00,
2013-03-25 13:00:00,48.3,33.3,29.55,SSW,212,4.0,8.0,56,0.00,,,0.00,Wunderground v.1.15,2013-03-25 17:00:00,
2013-03-25 13:01:00,48.3,32.4,29.55,SSW,195,4.0,8.0,54,0.00,,,0.00,Wunderground v.1.15,2013-03-25 17:01:00,
2013-03-25 13:02:00,48.3,32.9,29.55,SSW,205,2.0,8.0,55,0.00,,,0.00,Wunderground v.1.15,2013-03-25 17:02:00,
2013-03-25 13:05:00,48.3,33.8,29.55,SSW,212,3.0,8.0,57,0.00,,,0.00,Wunderground v.1.15,2013-03-25 17:05:00,
2013-03-25 13:06:00,48.3,32.9,29.55,SSW,205,2.0,8.0,55,0.00,,,0.00,Wunderground v.1.15,2013-03-25 17:06:00,
2013-03-25 13:07:00,48.3,32.9,29.55,SE,143,2.0,8.0,55,0.00,,,0.00,Wunderground v.1.15,2013-03-25 17:07:00,
2013-03-25 13:10:00,48.1,32.7,29.55,SSW,193,1.0,5.0,55,0.00,,,0.00,Wunderground v.1.15,2013-03-25 17:10:00,
2013-03-25 13:11:00,48.1,33.1,29.55,SSW,193,1.0,5.0,56,0.00,,,0.00,Wunderground v.1.15,2013-03-25 17:11:00,
2013-03-25 13:12:00,48.0,33.0,29.55,North,11,2.0,5.0,56,0.00,,,0.00,Wunderground v.1.15,2013-03-25 17:12:00,
2013-03-25 13:15:00,47.9,32.5,29.55,SSW,212,2.0,5.0,55,0.00,,,0.00,Wunderground v.1.15,2013-03-25 17:15:00,
2013-03-25 13:16:00,47.9,32.9,29.55,SSW,200,1.0,5.0,56,0.00,,,0.00,Wunderground v.1.15,2013-03-25 17:16:00,
2013-03-25 13:17:00,47.8,32.4,29.55,West,276,3.0,5.0,55,0.00,,,0.00,Wunderground v.1.15,2013-03-25 17:17:00,
2013-03-25 13:20:00,47.7,32.8,29.55,SSW,207,2.0,2.0,56,0.00,,,0.00,Wunderground v.1.15,2013-03-25 17:20:00,
2013-03-25 13:22:00,47.7,32.3,29.55,SSW,205,3.0,3.0,55,0.00,,,0.00,Wunderground v.1.15,2013-03-25 17:22:00,
2013-03-25 13:25:00,47.7,30.4,29.55,WNW,293,2.0,8.0,51,0.00,,,0.00,Wunderground v.1.15,2013-03-25 17:25:00,
2013-03-25 13:27:00,47.7,28.9,29.55,SSW,211,5.0,15.0,48,0.00,,,0.00,Wunderground v.1.15,2013-03-25 17:27:00,
2013-03-25 13:28:00,47.6,28.9,29.55,SSW,195,2.0,15.0,48,0.00,,,0.00,Wunderground v.1.15,2013-03-25 17:28:00,
2013-03-25 13:30:00,47.5,31.2,29.55,South,170,3.0,5.0,53,0.00,,,0.00,Wunderground v.1.15,2013-03-25 17:30:00,
2013-03-25 13:32:00,47.3,31.9,29.55,SSE,158,1.0,5.0,55,0.00,,,0.00,Wunderground v.1.15,2013-03-25 17:32:00,
2013-03-25 13:34:00,47.2,31.8,29.56,SW,221,6.0,10.0,55,0.00,,,0.00,Wunderground v.1.15,2013-03-25 17:34:00,
2013-03-25 13:35:00,47.0,31.7,29.56,SW,214,3.0,11.0,55,0.00,,,0.00,Wunderground v.1.15,2013-03-25 17:35:00,
2013-03-25 13:37:00,46.8,31.5,29.56,South,190,4.0,11.0,55,0.00,,,0.00,Wunderground v.1.15,2013-03-25 17:37:00,
2013-03-25 13:39:00,46.7,31.8,29.56,SSW,193,1.0,11.0,56,0.00,,,0.00,Wunderground v.1.15,2013-03-25 17:39:00,
2013-03-25 13:40:00,46.6,31.3,29.56,SSW,203,3.0,4.0,55,0.00,,,0.00,Wunderground v.1.15,2013-03-25 17:40:00,
2013-03-25 13:42:00,46.6,30.4,29.56,South,186,5.0,5.0,53,0.00,,,0.00,Wunderground v.1.15,2013-03-25 17:42:00,
2013-03-25 13:43:00,46.6,30.4,29.56,South,175,5.0,5.0,53,0.00,,,0.00,Wunderground v.1.15,2013-03-25 17:43:00,
2013-03-25 13:44:00,46.5,29.8,29.55,SE,142,3.0,6.0,52,0.00,,,0.00,Wunderground v.1.15,2013-03-25 17:44:00,
2013-03-25 13:46:00,46.5,30.3,29.56,SW,229,3.0,10.0,53,0.00,,,0.00,Wunderground v.1.15,2013-03-25 17:46:00,
2013-03-25 13:48:00,46.5,29.8,29.56,SSW,204,1.0,10.0,52,0.00,,,0.00,Wunderground v.1.15,2013-03-25 17:48:00,
2013-03-25 13:49:00,46.4,30.2,29.56,WSW,240,5.0,10.0,53,0.00,,,0.00,Wunderground v.1.15,2013-03-25 17:49:00,
2013-03-25 13:51:00,46.3,30.1,29.56,SSW,193,3.0,6.0,53,0.00,,,0.00,Wunderground v.1.15,2013-03-25 17:51:00,
2013-03-25 13:53:00,46.2,30.0,29.57,ESE,117,2.0,6.0,53,0.00,,,0.00,Wunderground v.1.15,2013-03-25 17:53:00,
2013-03-25 13:54:00,46.1,29.9,29.56,SSW,203,2.0,6.0,53,0.00,,,0.00,Wunderground v.1.15,2013-03-25 17:54:00,
2013-03-25 13:57:00,46.0,29.8,29.56,SW,227,6.0,8.0,53,0.00,,,0.00,Wunderground v.1.15,2013-03-25 17:57:00,
2013-03-25 13:58:00,45.9,29.2,29.57,North,354,5.0,8.0,52,0.00,,,0.00,Wunderground v.1.15,2013-03-25 17:58:00,
2013-03-25 13:59:00,45.9,28.8,29.56,NW,308,7.0,10.0,51,0.00,,,0.00,Wunderground v.1.15,2013-03-25 17:59:00,
2013-03-25 14:02:00,46.0,29.3,29.57,South,174,3.0,8.0,52,0.00,,,0.00,Wunderground v.1.15,2013-03-25 18:02:00,
2013-03-25 14:03:00,46.1,29.9,29.56,SSW,196,1.0,8.0,53,0.00,,,0.00,Wunderground v.1.15,2013-03-25 18:03:00,
2013-03-25 14:04:00,46.3,30.1,29.56,SSW,198,1.0,8.0,53,0.00,,,0.00,Wunderground v.1.15,2013-03-25 18:04:00,
2013-03-25 14:07:00,47.1,30.8,29.57,NE,35,6.0,8.0,53,0.00,,,0.00,Wunderground v.1.15,2013-03-25 18:07:00,
2013-03-25 14:08:00,47.4,31.1,29.56,WSW,250,4.0,8.0,53,0.00,,,0.00,Wunderground v.1.15,2013-03-25 18:08:00,
2013-03-25 14:09:00,47.7,30.0,29.56,WSW,238,1.0,8.0,50,0.00,,,0.00,Wunderground v.1.15,2013-03-25 18:09:00,
2013-03-25 14:12:00,48.1,30.8,29.56,SSW,207,5.0,6.0,51,0.00,,,0.00,Wunderground v.1.15,2013-03-25 18:12:00,
2013-03-25 14:13:00,48.2,29.4,29.57,WSW,248,2.0,6.0,48,0.00,,,0.00,Wunderground v.1.15,2013-03-25 18:13:00,
2013-03-25 14:15:00,48.3,29.5,29.56,NE,51,2.0,13.0,48,0.00,,,0.00,Wunderground v.1.15,2013-03-25 18:15:00,
2013-03-25 14:17:00,48.4,28.5,29.57,SSW,193,6.0,13.0,46,0.00,,,0.00,Wunderground v.1.15,2013-03-25 18:17:00,
2013-03-25 14:19:00,48.5,29.7,29.57,WSW,239,9.0,13.0,48,0.00,,,0.00,Wunderground v.1.15,2013-03-25 18:19:00,
2013-03-25 14:20:00,48.5,28.1,29.56,NE,41,3.0,7.0,45,0.00,,,0.00,Wunderground v.1.15,2013-03-25 18:20:00,
2013-03-25 14:22:00,48.8,28.9,29.56,SSW,212,3.0,7.0,46,0.00,,,0.00,Wunderground v.1.15,2013-03-25 18:22:00,
2013-03-25 14:24:00,48.8,27.3,29.57,SW,220,3.0,11.0,43,0.00,,,0.00,Wunderground v.1.15,2013-03-25 18:24:00,
2013-03-25 14:25:00,48.7,27.2,29.57,SSW,203,5.0,11.0,43,0.00,,,0.00,Wunderground v.1.15,2013-03-25 18:25:00,
2013-03-25 14:28:00,48.2,26.7,29.57,WSW,242,7.0,11.0,43,0.00,,,0.00,Wunderground v.1.15,2013-03-25 18:28:00,
2013-03-25 14:29:00,47.7,26.8,29.57,WSW,238,9.0,11.0,44,0.00,,,0.00,Wunderground v.1.15,2013-03-25 18:29:00,
2013-03-25 14:30:00,47.7,26.8,29.57,NNW,339,9.0,11.0,44,0.00,,,0.00,Wunderground v.1.15,2013-03-25 18:30:00,
2013-03-25 14:34:00,46.9,27.2,29.57,ESE,111,9.0,16.0,46,0.00,,,0.00,Wunderground v.1.15,2013-03-25 18:34:00,
2013-03-25 14:35:00,46.8,26.6,29.57,SSW,212,2.0,16.0,45,0.00,,,0.00,Wunderground v.1.15,2013-03-25 18:35:00,
2013-03-25 14:39:00,46.4,26.2,29.57,SSW,198,1.0,16.0,45,0.00,,,0.00,Wunderground v.1.15,2013-03-25 18:39:00,
2013-03-25 14:40:00,46.3,26.1,29.57,NNE,33,6.0,6.0,45,0.00,,,0.00,Wunderground v.1.15,2013-03-25 18:40:00,
2013-03-25 14:41:00,46.3,26.6,29.57,South,187,1.0,7.0,46,0.00,,,0.00,Wunderground v.1.15,2013-03-25 18:41:00,
2013-03-25 14:42:00,46.3,26.6,29.57,NW,325,4.0,7.0,46,0.00,,,0.00,Wunderground v.1.15,2013-03-25 18:42:00,
2013-03-25 14:44:00,46.1,25.9,29.57,North,354,2.0,9.0,45,0.00,,,0.00,Wunderground v.1.15,2013-03-25 18:44:00,
2013-03-25 14:45:00,46.1,26.4,29.57,SSW,207,1.0,9.0,46,0.00,,,0.00,Wunderground v.1.15,2013-03-25 18:45:00,
2013-03-25 14:46:00,46.0,26.4,29.57,SE,136,2.0,9.0,46,0.00,,,0.00,Wunderground v.1.15,2013-03-25 18:46:00,
2013-03-25 14:47:00,46.0,26.4,29.57,WSW,255,1.0,9.0,46,0.00,,,0.00,Wunderground v.1.15,2013-03-25 18:47:00,
2013-03-25 14:49:00,46.0,25.8,29.57,West,262,5.0,13.0,45,0.00,,,0.00,Wunderground v.1.15,2013-03-25 18:49:00,
2013-03-25 14:50:00,45.9,26.3,29.57,SE,134,2.0,4.0,46,0.00,,,0.00,Wunderground v.1.15,2013-03-25 18:50:00,
2013-03-25 14:52:00,45.9,26.8,29.57,SSE,155,3.0,7.0,47,0.00,,,0.00,Wunderground v.1.15,2013-03-25 18:52:00,
2013-03-25 14:54:00,45.9,26.8,29.57,North,353,3.0,12.0,47,0.00,,,0.00,Wunderground v.1.15,2013-03-25 18:54:00,
2013-03-25 14:56:00,45.9,26.8,29.57,SW,214,9.0,14.0,47,0.00,,,0.00,Wunderground v.1.15,2013-03-25 18:56:00,
2013-03-25 14:57:00,45.9,26.8,29.57,SSW,194,3.0,14.0,47,0.00,,,0.00,Wunderground v.1.15,2013-03-25 18:57:00,
2013-03-25 14:59:00,45.9,25.7,29.57,West,280,7.0,14.0,45,0.00,,,0.00,Wunderground v.1.15,2013-03-25 18:59:00,
2013-03-25 15:02:00,46.0,26.4,29.57,SW,233,8.0,8.0,46,0.00,,,0.00,Wunderground v.1.15,2013-03-25 19:02:00,
2013-03-25 15:03:00,46.2,27.1,29.57,North,6,2.0,8.0,47,0.00,,,0.00,Wunderground v.1.15,2013-03-25 19:03:00,
2013-03-25 15:05:00,46.3,25.6,29.57,South,177,4.0,15.0,44,0.00,,,0.00,Wunderground v.1.15,2013-03-25 19:05:00,
2013-03-25 15:07:00,46.3,25.0,29.57,SSW,199,3.0,15.0,43,0.00,,,0.00,Wunderground v.1.15,2013-03-25 19:07:00,
2013-03-25 15:08:00,46.4,25.6,29.57,SW,215,4.0,15.0,44,0.00,,,0.00,Wunderground v.1.15,2013-03-25 19:08:00,
2013-03-25 15:10:00,46.5,25.7,29.57,ESE,116,3.0,6.0,44,0.00,,,0.00,Wunderground v.1.15,2013-03-25 19:10:00,
2013-03-25 15:12:00,46.7,26.5,29.57,SW,225,4.0,6.0,45,0.00,,,0.00,Wunderground v.1.15,2013-03-25 19:12:00,
2013-03-25 15:13:00,46.9,26.1,29.57,WSW,238,4.0,7.0,44,0.00,,,0.00,Wunderground v.1.15,2013-03-25 19:13:00,
2013-03-25 15:15:00,47.0,26.7,29.57,North,8,2.0,7.0,45,0.00,,,0.00,Wunderground v.1.15,2013-03-25 19:15:00,
2013-03-25 15:17:00,47.2,26.9,29.57,SSW,209,2.0,7.0,45,0.00,,,0.00,Wunderground v.1.15,2013-03-25 19:17:00,
2013-03-25 15:18:00,47.3,26.5,29.57,WSW,248,3.0,7.0,44,0.00,,,0.00,Wunderground v.1.15,2013-03-25 19:18:00,
2013-03-25 15:20:00,47.4,26.0,29.57,WSW,243,5.0,6.0,43,0.00,,,0.00,Wunderground v.1.15,2013-03-25 19:20:00,
2013-03-25 15:23:00,47.2,25.3,29.57,WSW,248,3.0,7.0,42,0.00,,,0.00,Wunderground v.1.15,2013-03-25 19:23:00,
2013-03-25 15:24:00,47.2,25.8,29.57,South,177,3.0,7.0,43,0.00,,,0.00,Wunderground v.1.15,2013-03-25 19:24:00,
2013-03-25 15:25:00,47.2,25.8,29.57,West,264,5.0,12.0,43,0.00,,,0.00,Wunderground v.1.15,2013-03-25 19:25:00,
2013-03-25 15:28:00,47.4,26.6,29.57,South,177,0.0,12.0,44,0.00,,,0.00,Wunderground v.1.15,2013-03-25 19:28:00,
2013-03-25 15:29:00,47.5,26.6,29.57,SSW,207,2.0,12.0,44,0.00,,,0.00,Wunderground v.1.15,2013-03-25 19:29:00,
2013-03-25 15:32:00,47.7,26.3,29.57,WSW,237,2.0,8.0,43,0.00,,,0.00,Wunderground v.1.15,2013-03-25 19:32:00,
2013-03-25 15:33:00,47.8,26.4,29.57,NW,310,3.0,8.0,43,0.00,,,0.00,Wunderground v.1.15,2013-03-25 19:33:00,
2013-03-25 15:34:00,47.8,26.4,29.57,NNE,16,6.0,8.0,43,0.00,,,0.00,Wunderground v.1.15,2013-03-25 19:34:00,
2013-03-25 15:37:00,47.5,25.5,29.57,SW,228,4.0,12.0,42,0.00,,,0.00,Wunderground v.1.15,2013-03-25 19:37:00,
2013-03-25 15:39:00,47.3,25.3,29.57,SSW,198,2.0,12.0,42,0.00,,,0.00,Wunderground v.1.15,2013-03-25 19:39:00,
2013-03-25 15:42:00,47.1,26.3,29.57,NNE,30,3.0,8.0,44,0.00,,,0.00,Wunderground v.1.15,2013-03-25 19:42:00,
2013-03-25 15:44:00,47.1,26.3,29.57,WSW,245,4.0,8.0,44,0.00,,,0.00,Wunderground v.1.15,2013-03-25 19:44:00,
2013-03-25 15:45:00,47.2,26.9,29.57,WSW,240,8.0,9.0,45,0.00,,,0.00,Wunderground v.1.15,2013-03-25 19:45:00,
2013-03-25 15:47:00,47.3,26.5,29.57,North,359,2.0,9.0,44,0.00,,,0.00,Wunderground v.1.15,2013-03-25 19:47:00,
2013-03-25 15:49:00,47.5,26.6,29.57,WSW,243,2.0,9.0,44,0.00,,,0.00,Wunderground v.1.15,2013-03-25 19:49:00,
2013-03-25 15:50:00,47.5,26.6,29.57,WSW,248,2.0,3.0,44,0.00,,,0.00,Wunderground v.1.15,2013-03-25 19:50:00,
2013-03-25 15:52:00,48.1,27.7,29.57,South,177,2.0,6.0,45,0.00,,,0.00,Wunderground v.1.15,2013-03-25 19:52:00,
2013-03-25 15:54:00,48.4,26.9,29.57,SSW,203,9.0,9.0,43,0.00,,,0.00,Wunderground v.1.15,2013-03-25 19:54:00,
2013-03-25 15:55:00,48.4,26.9,29.57,South,170,5.0,9.0,43,0.00,,,0.00,Wunderground v.1.15,2013-03-25 19:55:00,
2013-03-25 15:58:00,48.2,26.7,29.57,SSE,152,7.0,9.0,43,0.00,,,0.00,Wunderground v.1.15,2013-03-25 19:58:00,
2013-03-25 16:00:00,48.1,26.1,29.58,WSW,245,3.0,4.0,42,0.00,,,0.00,Wunderground v.1.15,2013-03-25 20:00:00,
2013-03-25 16:03:00,47.8,25.8,29.58,WSW,237,8.0,8.0,42,0.00,,,0.00,Wunderground v.1.15,2013-03-25 20:03:00,
2013-03-25 16:05:00,47.5,26.1,29.57,WNW,294,6.0,8.0,43,0.00,,,0.00,Wunderground v.1.15,2013-03-25 20:05:00,
2013-03-25 16:06:00,47.4,25.4,29.57,SW,219,5.0,8.0,42,0.00,,,0.00,Wunderground v.1.15,2013-03-25 20:06:00,
2013-03-25 16:08:00,47.1,26.3,29.58,WSW,240,1.0,8.0,44,0.00,,,0.00,Wunderground v.1.15,2013-03-25 20:08:00,
2013-03-25 16:10:00,47.1,26.3,29.57,SSW,212,4.0,5.0,44,0.00,,,0.00,Wunderground v.1.15,2013-03-25 20:10:00,
2013-03-25 16:11:00,47.1,26.3,29.58,NW,319,3.0,10.0,44,0.00,,,0.00,Wunderground v.1.15,2013-03-25 20:11:00,
2013-03-25 16:13:00,47.0,26.2,29.58,SE,136,2.0,10.0,44,0.00,,,0.00,Wunderground v.1.15,2013-03-25 20:13:00,
2013-03-25 16:15:00,47.0,25.6,29.58,NE,43,2.0,10.0,43,0.00,,,0.00,Wunderground v.1.15,2013-03-25 20:15:00,
2013-03-25 16:16:00,47.0,25.6,29.58,West,262,5.0,10.0,43,0.00,,,0.00,Wunderground v.1.15,2013-03-25 20:16:00,
2013-03-25 16:18:00,47.0,25.6,29.58,WNW,289,9.0,10.0,43,0.00,,,0.00,Wunderground v.1.15,2013-03-25 20:18:00,
2013-03-25 16:20:00,46.9,25.5,29.58,SW,215,4.0,12.0,43,0.00,,,0.00,Wunderground v.1.15,2013-03-25 20:20:00,
2013-03-25 16:22:00,46.8,24.9,29.58,West,281,14.0,14.0,42,0.00,,,0.00,Wunderground v.1.15,2013-03-25 20:22:00,
2013-03-25 16:23:00,46.7,24.2,29.58,SW,222,6.0,14.0,41,0.00,,,0.00,Wunderground v.1.15,2013-03-25 20:23:00,
2013-03-25 16:24:00,46.7,24.8,29.58,WNW,295,6.0,14.0,42,0.00,,,0.00,Wunderground v.1.15,2013-03-25 20:24:00,
2013-03-25 16:25:00,46.6,24.7,29.58,South,188,3.0,14.0,42,0.00,,,0.00,Wunderground v.1.15,2013-03-25 20:25:00,
2013-03-25 16:27:00,46.6,24.7,29.58,WSW,242,1.0,14.0,42,0.00,,,0.00,Wunderground v.1.15,2013-03-25 20:27:00,
2013-03-25 16:28:00,46.5,25.2,29.58,SW,217,3.0,14.0,43,0.00,,,0.00,Wunderground v.1.15,2013-03-25 20:28:00,
2013-03-25 16:29:00,46.5,25.2,29.58,WSW,254,4.0,14.0,43,0.00,,,0.00,Wunderground v.1.15,2013-03-25 20:29:00,
2013-03-25 16:30:00,46.5,25.2,29.58,SSW,212,3.0,4.0,43,0.00,,,0.00,Wunderground v.1.15,2013-03-25 20:30:00,
2013-03-25 16:32:00,46.5,25.2,29.59,SSW,203,6.0,10.0,43,0.00,,,0.00,Wunderground v.1.15,2013-03-25 20:32:00,
2013-03-25 16:33:00,46.5,25.2,29.59,SE,131,3.0,10.0,43,0.00,,,0.00,Wunderground v.1.15,2013-03-25 20:33:00,
2013-03-25 16:34:00,46.5,25.2,29.58,WNW,293,6.0,12.0,43,0.00,,,0.00,Wunderground v.1.15,2013-03-25 20:34:00,
2013-03-25 16:35:00,46.4,25.1,29.59,SSW,210,5.0,12.0,43,0.00,,,0.00,Wunderground v.1.15,2013-03-25 20:35:00,
2013-03-25 16:37:00,46.4,25.1,29.59,SSW,195,3.0,12.0,43,0.00,,,0.00,Wunderground v.1.15,2013-03-25 20:37:00,
2013-03-25 16:38:00,46.3,25.0,29.59,SSW,194,5.0,12.0,43,0.00,,,0.00,Wunderground v.1.15,2013-03-25 20:38:00,
2013-03-25 16:39:00,46.3,24.4,29.59,SW,219,4.0,12.0,42,0.00,,,0.00,Wunderground v.1.15,2013-03-25 20:39:00,
2013-03-25 16:40:00,46.2,24.9,29.59,SE,131,4.0,12.0,43,0.00,,,0.00,Wunderground v.1.15,2013-03-25 20:40:00,
2013-03-25 16:42:00,46.1,24.8,29.59,WSW,250,3.0,14.0,43,0.00,,,0.00,Wunderground v.1.15,2013-03-25 20:42:00,
2013-03-25 16:43:00,46.1,25.4,29.59,SSW,194,1.0,14.0,44,0.00,,,0.00,Wunderground v.1.15,2013-03-25 20:43:00,
2013-03-25 16:44:00,46.1,25.4,29.59,NW,320,2.0,14.0,44,0.00,,,0.00,Wunderground v.1.15,2013-03-25 20:44:00,
2013-03-25 16:45:00,46.1,25.4,29.59,SSE,160,1.0,14.0,44,0.00,,,0.00,Wunderground v.1.15,2013-03-25 20:45:00,
2013-03-25 16:47:00,46.1,25.9,29.60,NW,322,1.0,14.0,45,0.00,,,0.00,Wunderground v.1.15,2013-03-25 20:47:00,
2013-03-25 16:48:00,46.2,25.5,29.59,South,169,4.0,14.0,44,0.00,,,0.00,Wunderground v.1.15,2013-03-25 20:48:00,
2013-03-25 16:50:00,46.2,25.5,29.59,NE,39,4.0,14.0,44,0.00,,,0.00,Wunderground v.1.15,2013-03-25 20:50:00,
2013-03-25 16:51:00,46.3,25.6,29.59,SW,229,1.0,6.0,44,0.00,,,0.00,Wunderground v.1.15,2013-03-25 20:51:00,
2013-03-25 16:52:00,46.3,25.6,29.60,SSE,149,1.0,6.0,44,0.00,,,0.00,Wunderground v.1.15,2013-03-25 20:52:00,
2013-03-25 16:53:00,46.3,25.6,29.60,SW,233,4.0,6.0,44,0.00,,,0.00,Wunderground v.1.15,2013-03-25 20:53:00,
2013-03-25 16:55:00,46.4,26.2,29.60,ENE,74,3.0,6.0,45,0.00,,,0.00,Wunderground v.1.15,2013-03-25 20:55:00,
2013-03-25 16:56:00,46.5,25.7,29.60,NNW,347,10.0,13.0,44,0.00,,,0.00,Wunderground v.1.15,2013-03-25 20:56:00,
2013-03-25 16:57:00,46.5,25.7,29.60,WSW,257,10.0,16.0,44,0.00,,,0.00,Wunderground v.1.15,2013-03-25 20:57:00,
2013-03-25 16:59:00,46.5,24.6,29.60,NNE,31,3.0,16.0,42,0.00,,,0.00,Wunderground v.1.15,2013-03-25 20:59:00,
2013-03-25 17:00:00,46.5,24.6,29.60,ENE,58,3.0,4.0,42,0.00,,,0.00,Wunderground v.1.15,2013-03-25 21:00:00,
2013-03-25 17:02:00,46.4,25.1,29.60,ESE,121,1.0,4.0,43,0.00,,,0.00,Wunderground v.1.15,2013-03-25 21:02:00,
2013-03-25 17:04:00,46.4,25.1,29.60,SSW,195,2.0,12.0,43,0.00,,,0.00,Wunderground v.1.15,2013-03-25 21:04:00,
2013-03-25 17:05:00,46.4,25.6,29.60,NW,312,1.0,12.0,44,0.00,,,0.00,Wunderground v.1.15,2013-03-25 21:05:00,
2013-03-25 17:07:00,46.4,25.6,29.60,SSE,167,6.0,12.0,44,0.00,,,0.00,Wunderground v.1.15,2013-03-25 21:07:00,
2013-03-25 17:08:00,46.4,25.1,29.60,SW,224,10.0,12.0,43,0.00,,,0.00,Wunderground v.1.15,2013-03-25 21:08:00,
2013-03-25 17:09:00,46.3,25.0,29.60,SW,236,2.0,12.0,43,0.00,,,0.00,Wunderground v.1.15,2013-03-25 21:09:00,
2013-03-25 17:10:00,46.3,25.6,29.60,SSE,149,3.0,5.0,44,0.00,,,0.00,Wunderground v.1.15,2013-03-25 21:10:00,
2013-03-25 17:12:00,46.2,24.9,29.60,WSW,256,1.0,6.0,43,0.00,,,0.00,Wunderground v.1.15,2013-03-25 21:12:00,
2013-03-25 17:13:00,46.2,25.5,29.60,SSW,203,3.0,6.0,44,0.00,,,0.00,Wunderground v.1.15,2013-03-25 21:13:00,
2013-03-25 17:14:00,46.2,25.5,29.60,WSW,255,6.0,14.0,44,0.00,,,0.00,Wunderground v.1.15,2013-03-25 21:14:00,
2013-03-25 17:15:00,46.1,24.8,29.61,WSW,252,5.0,14.0,43,0.00,,,0.00,Wunderground v.1.15,2013-03-25 21:15:00,
2013-03-25 17:17:00,46.1,24.8,29.60,WSW,238,7.0,14.0,43,0.00,,,0.00,Wunderground v.1.15,2013-03-25 21:17:00,
2013-03-25 17:18:00,46.1,24.8,29.60,WNW,285,11.0,14.0,43,0.00,,,0.00,Wunderground v.1.15,2013-03-25 21:18:00,
2013-03-25 17:19:00,46.1,24.8,29.61,SW,226,2.0,14.0,43,0.00,,,0.00,Wunderground v.1.15,2013-03-25 21:19:00,
2013-03-25 17:20:00,46.1,24.8,29.60,NE,52,3.0,9.0,43,0.00,,,0.00,Wunderground v.1.15,2013-03-25 21:20:00,
2013-03-25 17:22:00,46.1,24.8,29.61,SW,226,4.0,9.0,43,0.00,,,0.00,Wunderground v.1.15,2013-03-25 21:22:00,
2013-03-25 17:23:00,46.2,24.9,29.61,North,356,5.0,9.0,43,0.00,,,0.00,Wunderground v.1.15,2013-03-25 21:23:00,
2013-03-25 17:24:00,46.1,24.3,29.61,WNW,299,1.0,9.0,42,0.00,,,0.00,Wunderground v.1.15,2013-03-25 21:24:00,
2013-03-25 17:25:00,46.1,24.3,29.61,SSE,152,4.0,9.0,42,0.00,,,0.00,Wunderground v.1.15,2013-03-25 21:25:00,
2013-03-25 17:27:00,46.2,24.9,29.61,NNE,26,1.0,9.0,43,0.00,,,0.00,Wunderground v.1.15,2013-03-25 21:27:00,
2013-03-25 17:29:00,46.2,24.9,29.61,SW,217,1.0,10.0,43,0.00,,,0.00,Wunderground v.1.15,2013-03-25 21:29:00,
2013-03-25 17:30:00,46.2,25.5,29.61,WNW,282,8.0,9.0,44,0.00,,,0.00,Wunderground v.1.15,2013-03-25 21:30:00,
2013-03-25 17:32:00,46.2,24.3,29.61,ENE,65,3.0,9.0,42,0.00,,,0.00,Wunderground v.1.15,2013-03-25 21:32:00,
2013-03-25 17:34:00,46.2,24.9,29.61,SW,232,2.0,9.0,43,0.00,,,0.00,Wunderground v.1.15,2013-03-25 21:34:00,
2013-03-25 17:35:00,46.3,25.0,29.61,SW,217,4.0,9.0,43,0.00,,,0.00,Wunderground v.1.15,2013-03-25 21:35:00,
2013-03-25 17:37:00,46.3,25.0,29.61,SSW,211,7.0,10.0,43,0.00,,,0.00,Wunderground v.1.15,2013-03-25 21:37:00,
2013-03-25 17:39:00,46.3,24.4,29.61,WSW,248,4.0,14.0,42,0.00,,,0.00,Wunderground v.1.15,2013-03-25 21:39:00,
2013-03-25 17:41:00,46.2,24.3,29.61,NE,41,1.0,10.0,42,0.00,,,0.00,Wunderground v.1.15,2013-03-25 21:41:00,
2013-03-25 17:42:00,46.2,24.9,29.61,SSW,203,6.0,11.0,43,0.00,,,0.00,Wunderground v.1.15,2013-03-25 21:42:00,
2013-03-25 17:44:00,46.2,24.9,29.61,East,79,5.0,11.0,43,0.00,,,0.00,Wunderground v.1.15,2013-03-25 21:44:00,
2013-03-25 17:46:00,46.3,25.0,29.62,WSW,248,13.0,13.0,43,0.00,,,0.00,Wunderground v.1.15,2013-03-25 21:46:00,
2013-03-25 17:47:00,46.3,25.0,29.62,NNW,338,8.0,14.0,43,0.00,,,0.00,Wunderground v.1.15,2013-03-25 21:47:00,
2013-03-25 17:48:00,46.3,25.6,29.62,West,274,7.0,14.0,44,0.00,,,0.00,Wunderground v.1.15,2013-03-25 21:48:00,
2013-03-25 17:49:00,46.3,25.6,29.62,SSW,211,5.0,14.0,44,0.00,,,0.00,Wunderground v.1.15,2013-03-25 21:49:00,
2013-03-25 17:51:00,46.4,25.6,29.62,WSW,250,1.0,4.0,44,0.00,,,0.00,Wunderground v.1.15,2013-03-25 21:51:00,
2013-03-25 17:52:00,46.4,25.6,29.62,SSW,207,2.0,5.0,44,0.00,,,0.00,Wunderground v.1.15,2013-03-25 21:52:00,
2013-03-25 17:53:00,46.5,26.3,29.62,WNW,284,0.0,5.0,45,0.00,,,0.00,Wunderground v.1.15,2013-03-25 21:53:00,
2013-03-25 17:54:00,46.7,26.5,29.62,WSW,255,5.0,5.0,45,0.00,,,0.00,Wunderground v.1.15,2013-03-25 21:54:00,
2013-03-25 17:57:00,46.7,26.5,29.62,SSE,163,0.0,5.0,45,0.00,,,0.00,Wunderground v.1.15,2013-03-25 21:57:00,
2013-03-25 17:58:00,46.7,26.5,29.62,WNW,301,4.0,7.0,45,0.00,,,0.00,Wunderground v.1.15,2013-03-25 21:58:00,
2013-03-25 17:59:00,46.6,26.4,29.62,SW,214,2.0,7.0,45,0.00,,,0.00,Wunderground v.1.15,2013-03-25 21:59:00,
2013-03-25 18:02:00,46.5,25.7,29.62,North,9,2.0,3.0,44,0.00,,,0.00,Wunderground v.1.15,2013-03-25 22:02:00,
2013-03-25 18:03:00,46.3,25.6,29.62,West,269,3.0,8.0,44,0.00,,,0.00,Wunderground v.1.15,2013-03-25 22:03:00,
2013-03-25 18:04:00,46.3,25.6,29.62,South,173,3.0,12.0,44,0.00,,,0.00,Wunderground v.1.15,2013-03-25 22:04:00,
2013-03-25 18:07:00,46.0,25.3,29.62,WNW,295,2.0,12.0,44,0.00,,,0.00,Wunderground v.1.15,2013-03-25 22:07:00,
2013-03-25 18:08:00,45.9,25.7,29.63,WNW,288,0.0,12.0,45,0.00,,,0.00,Wunderground v.1.15,2013-03-25 22:08:00,
2013-03-25 18:10:00,45.9,26.3,29.63,SW,217,7.0,7.0,46,0.00,,,0.00,Wunderground v.1.15,2013-03-25 22:10:00,
2013-03-25 18:12:00,45.8,26.2,29.63,West,274,3.0,10.0,46,0.00,,,0.00,Wunderground v.1.15,2013-03-25 22:12:00,
2013-03-25 18:13:00,45.7,25.5,29.63,SE,130,4.0,10.0,45,0.00,,,0.00,Wunderground v.1.15,2013-03-25 22:13:00,
2013-03-25 18:15:00,45.7,26.1,29.63,South,170,4.0,10.0,46,0.00,,,0.00,Wunderground v.1.15,2013-03-25 22:15:00,
2013-03-25 18:17:00,45.5,25.9,29.63,SSE,160,2.0,12.0,46,0.00,,,0.00,Wunderground v.1.15,2013-03-25 22:17:00,
2013-03-25 18:18:00,45.4,25.8,29.63,SSW,207,4.0,12.0,46,0.00,,,0.00,Wunderground v.1.15,2013-03-25 22:18:00,
2013-03-25 18:20:00,45.3,25.7,29.63,South,186,3.0,4.0,46,0.00,,,0.00,Wunderground v.1.15,2013-03-25 22:20:00,
2013-03-25 18:22:00,45.3,25.7,29.63,SSW,210,1.0,9.0,46,0.00,,,0.00,Wunderground v.1.15,2013-03-25 22:22:00,
2013-03-25 18:24:00,45.2,26.7,29.63,SW,217,0.0,9.0,48,0.00,,,0.00,Wunderground v.1.15,2013-03-25 22:24:00,
2013-03-25 18:25:00,45.2,26.7,29.63,NNW,334,5.0,9.0,48,0.00,,,0.00,Wunderground v.1.15,2013-03-25 22:25:00,
2013-03-25 18:27:00,45.1,26.6,29.64,NE,40,4.0,9.0,48,0.00,,,0.00,Wunderground v.1.15,2013-03-25 22:27:00,
2013-03-25 18:29:00,45.1,26.6,29.64,SW,215,5.0,9.0,48,0.00,,,0.00,Wunderground v.1.15,2013-03-25 22:29:00,
2013-03-25 18:31:00,45.1,26.1,29.64,SW,233,13.0,13.0,47,0.00,,,0.00,Wunderground v.1.15,2013-03-25 22:31:00,
2013-03-25 18:32:00,45.0,26.0,29.64,SW,217,1.0,13.0,47,0.00,,,0.00,Wunderground v.1.15,2013-03-25 22:32:00,
2013-03-25 18:34:00,45.0,26.0,29.64,South,186,4.0,13.0,47,0.00,,,0.00,Wunderground v.1.15,2013-03-25 22:34:00,
2013-03-25 18:35:00,45.0,26.0,29.64,NNW,329,1.0,13.0,47,0.00,,,0.00,Wunderground v.1.15,2013-03-25 22:35:00,
2013-03-25 18:37:00,45.0,26.0,29.64,NE,37,3.0,13.0,47,0.00,,,0.00,Wunderground v.1.15,2013-03-25 22:37:00,
2013-03-25 18:38:00,44.9,26.4,29.64,SSW,198,2.0,13.0,48,0.00,,,0.00,Wunderground v.1.15,2013-03-25 22:38:00,
2013-03-25 18:39:00,44.9,26.4,29.64,ENE,72,1.0,13.0,48,0.00,,,0.00,Wunderground v.1.15,2013-03-25 22:39:00,
2013-03-25 18:40:00,44.9,26.4,29.64,North,5,1.0,3.0,48,0.00,,,0.00,Wunderground v.1.15,2013-03-25 22:40:00,
2013-03-25 18:42:00,44.9,26.4,29.64,SSE,149,1.0,5.0,48,0.00,,,0.00,Wunderground v.1.15,2013-03-25 22:42:00,
2013-03-25 18:43:00,44.8,26.3,29.64,SW,217,2.0,5.0,48,0.00,,,0.00,Wunderground v.1.15,2013-03-25 22:43:00,
2013-03-25 18:44:00,44.8,26.3,29.64,WNW,302,1.0,5.0,48,0.00,,,0.00,Wunderground v.1.15,2013-03-25 22:44:00,
2013-03-25 18:45:00,44.8,26.3,29.64,SE,136,1.0,5.0,48,0.00,,,0.00,Wunderground v.1.15,2013-03-25 22:45:00,
2013-03-25 18:48:00,44.8,26.8,29.65,SW,228,2.0,5.0,49,0.00,,,0.00,Wunderground v.1.15,2013-03-25 22:48:00,
2013-03-25 18:49:00,44.7,26.2,29.65,SW,225,2.0,7.0,48,0.00,,,0.00,Wunderground v.1.15,2013-03-25 22:49:00,
2013-03-25 18:50:00,44.7,25.7,29.65,SW,226,2.0,4.0,47,0.00,,,0.00,Wunderground v.1.15,2013-03-25 22:50:00,
2013-03-25 18:53:00,44.7,26.7,29.65,SW,226,4.0,5.0,49,0.00,,,0.00,Wunderground v.1.15,2013-03-25 22:53:00,
2013-03-25 18:54:00,44.6,26.1,29.65,SSW,203,1.0,5.0,48,0.00,,,0.00,Wunderground v.1.15,2013-03-25 22:54:00,
2013-03-25 18:55:00,44.6,26.1,29.65,SSW,205,2.0,5.0,48,0.00,,,0.00,Wunderground v.1.15,2013-03-25 22:55:00,
2013-03-25 18:58:00,44.6,26.6,29.65,WSW,239,3.0,5.0,49,0.00,,,0.00,Wunderground v.1.15,2013-03-25 22:58:00,
2013-03-25 18:59:00,44.6,26.1,29.65,WSW,238,2.0,5.0,48,0.00,,,0.00,Wunderground v.1.15,2013-03-25 22:59:00,
2013-03-25 19:00:00,44.6,26.6,29.66,WNW,298,3.0,4.0,49,0.00,,,0.00,Wunderground v.1.15,2013-03-25 23:00:00,
2013-03-25 19:03:00,44.5,26.5,29.66,WSW,255,3.0,6.0,49,0.00,,,0.00,Wunderground v.1.15,2013-03-25 23:03:00,
2013-03-25 19:04:00,44.5,26.5,29.66,SSE,164,1.0,6.0,49,0.00,,,0.00,Wunderground v.1.15,2013-03-25 23:04:00,
2013-03-25 19:05:00,44.5,26.5,29.66,SW,218,1.0,6.0,49,0.00,,,0.00,Wunderground v.1.15,2013-03-25 23:05:00,
2013-03-25 19:08:00,44.5,26.5,29.66,West,279,0.0,6.0,49,0.00,,,0.00,Wunderground v.1.15,2013-03-25 23:08:00,
2013-03-25 19:10:00,44.5,26.5,29.66,WSW,250,0.0,2.0,49,0.00,,,0.00,Wunderground v.1.15,2013-03-25 23:10:00,
2013-03-25 19:11:00,44.4,26.9,29.66,WSW,248,0.0,2.0,50,0.00,,,0.00,Wunderground v.1.15,2013-03-25 23:11:00,
2013-03-25 19:13:00,44.4,26.4,29.66,WNW,298,3.0,6.0,49,0.00,,,0.00,Wunderground v.1.15,2013-03-25 23:13:00,
2013-03-25 19:15:00,44.4,26.4,29.66,SSW,198,3.0,7.0,49,0.00,,,0.00,Wunderground v.1.15,2013-03-25 23:15:00,
2013-03-25 19:16:00,44.4,26.4,29.66,WSW,239,2.0,7.0,49,0.00,,,0.00,Wunderground v.1.15,2013-03-25 23:16:00,
2013-03-25 19:18:00,44.4,26.4,29.66,SW,231,0.0,7.0,49,0.00,,,0.00,Wunderground v.1.15,2013-03-25 23:18:00,
2013-03-25 19:20:00,44.4,25.9,29.67,WSW,242,0.0,2.0,48,0.00,,,0.00,Wunderground v.1.15,2013-03-25 23:20:00,
2013-03-25 19:22:00,44.5,26.5,29.67,West,264,8.0,8.0,49,0.00,,,0.00,Wunderground v.1.15,2013-03-25 23:22:00,
2013-03-25 19:23:00,44.5,26.0,29.67,WNW,288,4.0,9.0,48,0.00,,,0.00,Wunderground v.1.15,2013-03-25 23:23:00,
2013-03-25 19:25:00,44.5,26.0,29.67,SSW,198,2.0,9.0,48,0.00,,,0.00,Wunderground v.1.15,2013-03-25 23:25:00,
2013-03-25 19:26:00,44.5,26.5,29.67,SSW,203,2.0,9.0,49,0.00,,,0.00,Wunderground v.1.15,2013-03-25 23:26:00,
2013-03-25 19:27:00,44.4,26.4,29.67,SSW,211,1.0,9.0,49,0.00,,,0.00,Wunderground v.1.15,2013-03-25 23:27:00,
2013-03-25 19:28:00,44.4,26.4,29.67,SW,228,1.0,9.0,49,0.00,,,0.00,Wunderground v.1.15,2013-03-25 23:28:00,
2013-03-25 19:30:00,44.3,26.3,29.67,WNW,288,2.0,6.0,49,0.00,,,0.00,Wunderground v.1.15,2013-03-25 23:30:00,
2013-03-25 19:31:00,44.3,25.8,29.67,South,185,0.0,6.0,48,0.00,,,0.00,Wunderground v.1.15,2013-03-25 23:31:00,
2013-03-25 19:32:00,44.3,26.3,29.68,NE,51,4.0,6.0,49,0.00,,,0.00,Wunderground v.1.15,2013-03-25 23:32:00,
2013-03-25 19:33:00,44.2,25.7,29.67,ESE,118,1.0,6.0,48,0.00,,,0.00,Wunderground v.1.15,2013-03-25 23:33:00,
2013-03-25 19:35:00,44.2,26.2,29.68,SSW,208,0.0,6.0,49,0.00,,,0.00,Wunderground v.1.15,2013-03-25 23:35:00,
2013-03-25 19:37:00,44.1,26.1,29.68,WNW,285,5.0,8.0,49,0.00,,,0.00,Wunderground v.1.15,2013-03-25 23:37:00,
2013-03-25 19:38:00,44.1,26.1,29.68,WNW,283,1.0,8.0,49,0.00,,,0.00,Wunderground v.1.15,2013-03-25 23:38:00,
2013-03-25 19:42:00,44.0,26.0,29.68,WSW,240,0.0,5.0,49,0.00,,,0.00,Wunderground v.1.15,2013-03-25 23:42:00,
2013-03-25 19:43:00,44.0,26.0,29.68,SW,217,0.0,5.0,49,0.00,,,0.00,Wunderground v.1.15,2013-03-25 23:43:00,
2013-03-25 19:44:00,44.0,26.0,29.68,SSW,211,1.0,5.0,49,0.00,,,0.00,Wunderground v.1.15,2013-03-25 23:44:00,
2013-03-25 19:47:00,43.9,26.0,29.69,WSW,257,4.0,6.0,49,0.00,,,0.00,Wunderground v.1.15,2013-03-25 23:47:00,
2013-03-25 19:48:00,43.9,26.0,29.69,South,170,0.0,6.0,49,0.00,,,0.00,Wunderground v.1.15,2013-03-25 23:48:00,
2013-03-25 19:49:00,44.0,26.0,29.69,SSW,197,2.0,6.0,49,0.00,,,0.00,Wunderground v.1.15,2013-03-25 23:49:00,
2013-03-25 19:52:00,43.9,26.0,29.69,South,190,5.0,6.0,49,0.00,,,0.00,Wunderground v.1.15,2013-03-25 23:52:00,
2013-03-25 19:53:00,43.9,26.0,29.69,West,271,4.0,6.0,49,0.00,,,0.00,Wunderground v.1.15,2013-03-25 23:53:00,
2013-03-25 19:55:00,43.9,26.0,29.69,SSW,209,2.0,7.0,49,0.00,,,0.00,Wunderground v.1.15,2013-03-25 23:55:00,
2013-03-25 19:57:00,43.9,26.4,29.69,SW,216,0.0,7.0,50,0.00,,,0.00,Wunderground v.1.15,2013-03-25 23:57:00,
2013-03-25 19:58:00,43.9,26.4,29.69,SSW,195,1.0,7.0,50,0.00,,,0.00,Wunderground v.1.15,2013-03-25 23:58:00,
2013-03-25 20:00:00,43.8,26.3,29.69,WNW,282,2.0,2.0,50,0.00,,,0.00,Wunderground v.1.15,2013-03-26 00:00:00,
2013-03-25 20:02:00,43.7,26.7,29.69,WSW,252,2.0,4.0,51,0.00,,,0.00,Wunderground v.1.15,2013-03-26 00:02:00,
2013-03-25 20:04:00,43.6,26.2,29.69,WSW,240,4.0,5.0,50,0.00,,,0.00,Wunderground v.1.15,2013-03-26 00:04:00,
2013-03-25 20:05:00,43.6,26.2,29.69,SSW,200,1.0,5.0,50,0.00,,,0.00,Wunderground v.1.15,2013-03-26 00:05:00,
2013-03-25 20:07:00,43.5,26.1,29.69,SW,219,1.0,5.0,50,0.00,,,0.00,Wunderground v.1.15,2013-03-26 00:07:00,
2013-03-25 20:09:00,43.5,26.1,29.70,West,265,0.0,5.0,50,0.00,,,0.00,Wunderground v.1.15,2013-03-26 00:09:00,
2013-03-25 20:10:00,43.4,26.0,29.70,SW,229,1.0,2.0,50,0.00,,,0.00,Wunderground v.1.15,2013-03-26 00:10:00,
2013-03-25 20:13:00,43.3,25.9,29.70,ESE,117,1.0,3.0,50,0.00,,,0.00,Wunderground v.1.15,2013-03-26 00:13:00,
2013-03-25 20:14:00,43.2,26.3,29.70,WNW,283,1.0,3.0,51,0.00,,,0.00,Wunderground v.1.15,2013-03-26 00:14:00,
2013-03-25 20:15:00,43.2,26.3,29.70,WSW,243,1.0,5.0,51,0.00,,,0.00,Wunderground v.1.15,2013-03-26 00:15:00,
2013-03-25 20:18:00,43.1,26.2,29.70,SW,231,1.0,5.0,51,0.00,,,0.00,Wunderground v.1.15,2013-03-26 00:18:00,
2013-03-25 20:19:00,43.1,26.2,29.70,SW,229,0.0,5.0,51,0.00,,,0.00,Wunderground v.1.15,2013-03-26 00:19:00,
2013-03-25 20:20:00,43.0,26.6,29.70,SSW,203,0.0,1.0,52,0.00,,,0.00,Wunderground v.1.15,2013-03-26 00:20:00,
2013-03-25 20:23:00,42.9,26.0,29.70,NW,304,2.0,4.0,51,0.00,,,0.00,Wunderground v.1.15,2013-03-26 00:23:00,
2013-03-25 20:24:00,42.8,25.9,29.70,SW,214,0.0,4.0,51,0.00,,,0.00,Wunderground v.1.15,2013-03-26 00:24:00,
2013-03-25 20:25:00,42.8,25.9,29.70,WNW,287,5.0,6.0,51,0.00,,,0.00,Wunderground v.1.15,2013-03-26 00:25:00,
2013-03-25 20:28:00,42.7,26.3,29.70,ENE,61,1.0,6.0,52,0.00,,,0.00,Wunderground v.1.15,2013-03-26 00:28:00,
2013-03-25 20:29:00,42.7,25.8,29.71,South,181,2.0,6.0,51,0.00,,,0.00,Wunderground v.1.15,2013-03-26 00:29:00,
2013-03-25 20:30:00,42.7,25.8,29.70,SSW,205,0.0,2.0,51,0.00,,,0.00,Wunderground v.1.15,2013-03-26 00:30:00,
2013-03-25 20:33:00,42.7,25.8,29.71,West,263,0.0,2.0,51,0.00,,,0.00,Wunderground v.1.15,2013-03-26 00:33:00,
2013-03-25 20:34:00,42.7,25.8,29.71,SW,226,1.0,2.0,51,0.00,,,0.00,Wunderground v.1.15,2013-03-26 00:34:00,
2013-03-25 20:36:00,42.7,25.8,29.71,West,267,0.0,2.0,51,0.00,,,0.00,Wunderground v.1.15,2013-03-26 00:36:00,
2013-03-25 20:38:00,42.6,25.7,29.71,South,178,1.0,3.0,51,0.00,,,0.00,Wunderground v.1.15,2013-03-26 00:38:00,
2013-03-25 20:39:00,42.6,26.2,29.71,SW,233,2.0,3.0,52,0.00,,,0.00,Wunderground v.1.15,2013-03-26 00:39:00,
2013-03-25 20:40:00,42.6,25.7,29.71,WSW,245,1.0,2.0,51,0.00,,,0.00,Wunderground v.1.15,2013-03-26 00:40:00,
2013-03-25 20:41:00,42.6,25.7,29.71,SW,228,0.0,6.0,51,0.00,,,0.00,Wunderground v.1.15,2013-03-26 00:41:00,
2013-03-25 20:44:00,42.6,25.7,29.71,WSW,245,1.0,6.0,51,0.00,,,0.00,Wunderground v.1.15,2013-03-26 00:44:00,
2013-03-25 20:45:00,42.6,25.7,29.71,WSW,249,2.0,6.0,51,0.00,,,0.00,Wunderground v.1.15,2013-03-26 00:45:00,
2013-03-25 20:46:00,42.6,25.7,29.71,SSW,207,1.0,6.0,51,0.00,,,0.00,Wunderground v.1.15,2013-03-26 00:46:00,
2013-03-25 20:49:00,42.7,25.8,29.71,SE,142,1.0,6.0,51,0.00,,,0.00,Wunderground v.1.15,2013-03-26 00:49:00,
2013-03-25 20:50:00,42.7,26.3,29.72,WSW,252,3.0,4.0,52,0.00,,,0.00,Wunderground v.1.15,2013-03-26 00:50:00,
2013-03-25 20:51:00,42.8,25.9,29.71,SW,231,2.0,5.0,51,0.00,,,0.00,Wunderground v.1.15,2013-03-26 00:51:00,
2013-03-25 20:54:00,42.8,25.9,29.71,SSW,210,3.0,6.0,51,0.00,,,0.00,Wunderground v.1.15,2013-03-26 00:54:00,
2013-03-25 20:55:00,42.9,26.0,29.72,NW,326,2.0,6.0,51,0.00,,,0.00,Wunderground v.1.15,2013-03-26 00:55:00,
2013-03-25 20:57:00,42.9,26.0,29.71,ENE,78,2.0,6.0,51,0.00,,,0.00,Wunderground v.1.15,2013-03-26 00:57:00,
2013-03-25 20:59:00,42.9,26.0,29.71,SSW,205,2.0,6.0,51,0.00,,,0.00,Wunderground v.1.15,2013-03-26 00:59:00,
2013-03-25 21:00:00,42.9,25.5,29.71,West,276,1.0,11.0,50,0.00,,,0.00,Wunderground v.1.15,2013-03-26 01:00:00,
2013-03-25 21:02:00,43.0,25.6,29.72,SW,221,2.0,11.0,50,0.00,,,0.00,Wunderground v.1.15,2013-03-26 01:02:00,
2013-03-25 21:04:00,43.0,25.6,29.72,SSW,208,2.0,11.0,50,0.00,,,0.00,Wunderground v.1.15,2013-03-26 01:04:00,
2013-03-25 21:05:00,43.0,25.1,29.72,SE,131,1.0,11.0,49,0.00,,,0.00,Wunderground v.1.15,2013-03-26 01:05:00,
2013-03-25 21:06:00,43.1,25.7,29.72,WSW,242,2.0,11.0,50,0.00,,,0.00,Wunderground v.1.15,2013-03-26 01:06:00,
2013-03-25 21:07:00,43.0,25.1,29.72,WSW,239,1.0,11.0,49,0.00,,,0.00,Wunderground v.1.15,2013-03-26 01:07:00,
2013-03-25 21:09:00,43.1,25.7,29.72,ESE,123,0.0,11.0,50,0.00,,,0.00,Wunderground v.1.15,2013-03-26 01:09:00,
2013-03-25 21:10:00,43.0,25.6,29.72,ESE,122,0.0,2.0,50,0.00,,,0.00,Wunderground v.1.15,2013-03-26 01:10:00,
2013-03-25 21:11:00,43.0,25.6,29.73,SE,139,1.0,2.0,50,0.00,,,0.00,Wunderground v.1.15,2013-03-26 01:11:00,
2013-03-25 21:13:00,43.0,25.6,29.73,SW,233,1.0,3.0,50,0.00,,,0.00,Wunderground v.1.15,2013-03-26 01:13:00,
2013-03-25 21:14:00,42.9,25.5,29.73,WNW,282,3.0,3.0,50,0.00,,,0.00,Wunderground v.1.15,2013-03-26 01:14:00,
2013-03-25 21:15:00,42.9,25.5,29.73,SSW,207,2.0,4.0,50,0.00,,,0.00,Wunderground v.1.15,2013-03-26 01:15:00,
2013-03-25 21:16:00,42.9,25.5,29.73,WNW,283,0.0,4.0,50,0.00,,,0.00,Wunderground v.1.15,2013-03-26 01:16:00,
2013-03-25 21:18:00,42.9,25.5,29.73,SW,225,2.0,4.0,50,0.00,,,0.00,Wunderground v.1.15,2013-03-26 01:18:00,
2013-03-25 21:20:00,42.9,25.5,29.73,SW,215,1.0,1.0,50,0.00,,,0.00,Wunderground v.1.15,2013-03-26 01:20:00,
2013-03-25 21:21:00,42.8,25.4,29.73,SW,218,3.0,3.0,50,0.00,,,0.00,Wunderground v.1.15,2013-03-26 01:21:00,
2013-03-25 21:23:00,42.8,25.4,29.73,WSW,240,1.0,6.0,50,0.00,,,0.00,Wunderground v.1.15,2013-03-26 01:23:00,
2013-03-25 21:25:00,42.8,25.4,29.73,SSE,149,2.0,6.0,50,0.00,,,0.00,Wunderground v.1.15,2013-03-26 01:25:00,
2013-03-25 21:27:00,42.8,25.4,29.73,West,263,1.0,6.0,50,0.00,,,0.00,Wunderground v.1.15,2013-03-26 01:27:00,
2013-03-25 21:28:00,42.7,25.3,29.73,South,188,2.0,6.0,50,0.00,,,0.00,Wunderground v.1.15,2013-03-26 01:28:00,
2013-03-25 21:30:00,42.7,25.3,29.73,SSW,193,0.0,2.0,50,0.00,,,0.00,Wunderground v.1.15,2013-03-26 01:30:00,
2013-03-25 21:31:00,42.7,25.8,29.73,SSW,193,0.0,2.0,51,0.00,,,0.00,Wunderground v.1.15,2013-03-26 01:31:00,
2013-03-25 21:32:00,42.6,25.7,29.74,WNW,293,2.0,3.0,51,0.00,,,0.00,Wunderground v.1.15,2013-03-26 01:32:00,
2013-03-25 21:34:00,42.6,25.2,29.74,West,271,1.0,7.0,50,0.00,,,0.00,Wunderground v.1.15,2013-03-26 01:34:00,
2013-03-25 21:35:00,42.5,25.1,29.74,WSW,250,1.0,7.0,50,0.00,,,0.00,Wunderground v.1.15,2013-03-26 01:35:00,
2013-03-25 21:36:00,42.5,25.1,29.74,SW,235,2.0,7.0,50,0.00,,,0.00,Wunderground v.1.15,2013-03-26 01:36:00,
2013-03-25 21:38:00,42.5,25.1,29.74,SW,233,0.0,7.0,50,0.00,,,0.00,Wunderground v.1.15,2013-03-26 01:38:00,
2013-03-25 21:39:00,42.5,25.6,29.74,SW,231,1.0,7.0,51,0.00,,,0.00,Wunderground v.1.15,2013-03-26 01:39:00,
2013-03-25 21:40:00,42.5,25.6,29.74,SSW,208,0.0,1.0,51,0.00,,,0.00,Wunderground v.1.15,2013-03-26 01:40:00,
2013-03-25 21:41:00,42.4,25.5,29.74,SW,218,0.0,1.0,51,0.00,,,0.00,Wunderground v.1.15,2013-03-26 01:41:00,
2013-03-25 21:43:00,42.4,25.5,29.74,SSW,195,0.0,1.0,51,0.00,,,0.00,Wunderground v.1.15,2013-03-26 01:43:00,
2013-03-25 21:44:00,42.3,25.4,29.74,SW,214,1.0,2.0,51,0.00,,,0.00,Wunderground v.1.15,2013-03-26 01:44:00,
2013-03-25 21:45:00,42.2,25.3,29.74,SSW,197,1.0,2.0,51,0.00,,,0.00,Wunderground v.1.15,2013-03-26 01:45:00,
2013-03-25 21:47:00,42.2,25.8,29.74,SSW,197,0.0,2.0,52,0.00,,,0.00,Wunderground v.1.15,2013-03-26 01:47:00,
2013-03-25 21:48:00,42.1,25.7,29.74,SSW,200,1.0,2.0,52,0.00,,,0.00,Wunderground v.1.15,2013-03-26 01:48:00,
2013-03-25 21:49:00,42.0,25.6,29.74,SSE,166,0.0,2.0,52,0.00,,,0.00,Wunderground v.1.15,2013-03-26 01:49:00,
2013-03-25 21:50:00,42.0,25.6,29.74,WSW,245,2.0,2.0,52,0.00,,,0.00,Wunderground v.1.15,2013-03-26 01:50:00,
2013-03-25 21:52:00,41.9,25.5,29.74,SW,214,1.0,2.0,52,0.00,,,0.00,Wunderground v.1.15,2013-03-26 01:52:00,
2013-03-25 21:53:00,41.8,25.4,29.74,SW,214,0.0,2.0,52,0.00,,,0.00,Wunderground v.1.15,2013-03-26 01:53:00,
2013-03-25 21:54:00,41.7,25.8,29.75,West,264,2.0,3.0,53,0.00,,,0.00,Wunderground v.1.15,2013-03-26 01:54:00,
2013-03-25 21:55:00,41.7,25.8,29.75,SW,222,1.0,3.0,53,0.00,,,0.00,Wunderground v.1.15,2013-03-26 01:55:00,
2013-03-25 21:57:00,41.6,25.7,29.75,SSE,155,1.0,3.0,53,0.00,,,0.00,Wunderground v.1.15,2013-03-26 01:57:00,
2013-03-25 21:58:00,41.5,25.6,29.75,WSW,242,4.0,4.0,53,0.00,,,0.00,Wunderground v.1.15,2013-03-26 01:58:00,
2013-03-25 21:59:00,41.5,25.6,29.75,SSW,205,1.0,5.0,53,0.00,,,0.00,Wunderground v.1.15,2013-03-26 01:59:00,
2013-03-25 22:00:00,41.5,26.1,29.75,SSW,205,0.0,1.0,54,0.00,,,0.00,Wunderground v.1.15,2013-03-26 02:00:00,
2013-03-25 22:02:00,41.4,25.5,29.75,WSW,245,0.0,2.0,53,0.00,,,0.00,Wunderground v.1.15,2013-03-26 02:02:00,
2013-03-25 22:03:00,41.3,25.9,29.75,SSW,203,0.0,2.0,54,0.00,,,0.00,Wunderground v.1.15,2013-03-26 02:03:00,
2013-03-25 22:04:00,41.3,25.9,29.75,NW,319,3.0,3.0,54,0.00,,,0.00,Wunderground v.1.15,2013-03-26 02:04:00,
2013-03-25 22:06:00,41.2,25.3,29.75,WSW,243,0.0,3.0,53,0.00,,,0.00,Wunderground v.1.15,2013-03-26 02:06:00,
2013-03-25 22:07:00,41.2,25.3,29.75,SW,228,2.0,4.0,53,0.00,,,0.00,Wunderground v.1.15,2013-03-26 02:07:00,
2013-03-25 22:08:00,41.2,25.8,29.75,WSW,255,4.0,5.0,54,0.00,,,0.00,Wunderground v.1.15,2013-03-26 02:08:00,
2013-03-25 22:10:00,41.2,25.3,29.75,SW,222,1.0,1.0,53,0.00,,,0.00,Wunderground v.1.15,2013-03-26 02:10:00,
2013-03-25 22:11:00,41.1,25.7,29.75,NE,41,0.0,1.0,54,0.00,,,0.00,Wunderground v.1.15,2013-03-26 02:11:00,
2013-03-25 22:12:00,41.1,25.7,29.75,SE,125,0.0,1.0,54,0.00,,,0.00,Wunderground v.1.15,2013-03-26 02:12:00,
2013-03-25 22:13:00,41.1,25.7,29.75,WSW,248,1.0,1.0,54,0.00,,,0.00,Wunderground v.1.15,2013-03-26 02:13:00,
2013-03-25 22:15:00,41.0,25.6,29.75,SW,231,1.0,2.0,54,0.00,,,0.00,Wunderground v.1.15,2013-03-26 02:15:00,
2013-03-25 22:16:00,41.0,25.6,29.75,WSW,240,1.0,4.0,54,0.00,,,0.00,Wunderground v.1.15,2013-03-26 02:16:00,
2013-03-25 22:17:00,41.0,25.6,29.75,SSW,195,1.0,4.0,54,0.00,,,0.00,Wunderground v.1.15,2013-03-26 02:17:00,
2013-03-25 22:19:00,41.0,25.6,29.76,SW,224,0.0,4.0,54,0.00,,,0.00,Wunderground v.1.15,2013-03-26 02:19:00,
2013-03-25 22:20:00,40.9,25.5,29.75,SW,217,3.0,3.0,54,0.00,,,0.00,Wunderground v.1.15,2013-03-26 02:20:00,
2013-03-25 22:22:00,40.9,25.5,29.76,West,262,5.0,5.0,54,0.00,,,0.00,Wunderground v.1.15,2013-03-26 02:22:00,
2013-03-25 22:23:00,40.9,25.5,29.75,WNW,296,1.0,5.0,54,0.00,,,0.00,Wunderground v.1.15,2013-03-26 02:23:00,
2013-03-25 22:24:00,40.8,25.4,29.76,WNW,295,0.0,5.0,54,0.00,,,0.00,Wunderground v.1.15,2013-03-26 02:24:00,
2013-03-25 22:25:00,40.8,25.9,29.76,SW,214,2.0,5.0,55,0.00,,,0.00,Wunderground v.1.15,2013-03-26 02:25:00,
2013-03-25 22:27:00,40.7,25.3,29.76,NE,56,0.0,5.0,54,0.00,,,0.00,Wunderground v.1.15,2013-03-26 02:27:00,
2013-03-25 22:28:00,40.7,25.8,29.76,ENE,57,0.0,5.0,55,0.00,,,0.00,Wunderground v.1.15,2013-03-26 02:28:00,
2013-03-25 22:29:00,40.7,25.8,29.76,NE,56,0.0,5.0,55,0.00,,,0.00,Wunderground v.1.15,2013-03-26 02:29:00,
2013-03-25 22:30:00,40.7,25.8,29.76,SSW,209,0.0,1.0,55,0.00,,,0.00,Wunderground v.1.15,2013-03-26 02:30:00,
2013-03-25 22:32:00,40.6,25.7,29.76,SSW,205,0.0,1.0,55,0.00,,,0.00,Wunderground v.1.15,2013-03-26 02:32:00,
2013-03-25 22:33:00,40.6,25.7,29.76,WSW,254,3.0,3.0,55,0.00,,,0.00,Wunderground v.1.15,2013-03-26 02:33:00,
2013-03-25 22:34:00,40.6,25.7,29.76,WSW,240,1.0,5.0,55,0.00,,,0.00,Wunderground v.1.15,2013-03-26 02:34:00,
2013-03-25 22:35:00,40.5,25.6,29.76,SW,235,2.0,5.0,55,0.00,,,0.00,Wunderground v.1.15,2013-03-26 02:35:00,
2013-03-25 22:38:00,40.5,26.0,29.76,WSW,252,2.0,5.0,56,0.00,,,0.00,Wunderground v.1.15,2013-03-26 02:38:00,
2013-03-25 22:39:00,40.4,25.5,29.76,WSW,238,1.0,5.0,55,0.00,,,0.00,Wunderground v.1.15,2013-03-26 02:39:00,
2013-03-25 22:40:00,40.4,25.9,29.76,WSW,249,2.0,2.0,56,0.00,,,0.00,Wunderground v.1.15,2013-03-26 02:40:00,
2013-03-25 22:43:00,40.4,25.9,29.77,WSW,238,0.0,2.0,56,0.00,,,0.00,Wunderground v.1.15,2013-03-26 02:43:00,
2013-03-25 22:44:00,40.3,26.3,29.77,WSW,238,0.0,2.0,57,0.00,,,0.00,Wunderground v.1.15,2013-03-26 02:44:00,
2013-03-25 22:45:00,40.2,25.7,29.76,East,81,0.0,2.0,56,0.00,,,0.00,Wunderground v.1.15,2013-03-26 02:45:00,
2013-03-25 22:48:00,40.1,25.6,29.77,SW,234,0.0,7.0,56,0.00,,,0.00,Wunderground v.1.15,2013-03-26 02:48:00,
2013-03-25 22:49:00,40.1,25.6,29.76,SW,225,1.0,7.0,56,0.00,,,0.00,Wunderground v.1.15,2013-03-26 02:49:00,
2013-03-25 22:50:00,40.1,25.6,29.76,West,263,2.0,5.0,56,0.00,,,0.00,Wunderground v.1.15,2013-03-26 02:50:00,
2013-03-25 22:53:00,40.0,25.6,29.76,WSW,238,0.0,5.0,56,0.00,,,0.00,Wunderground v.1.15,2013-03-26 02:53:00,
2013-03-25 22:54:00,40.0,26.0,29.76,SW,222,0.0,5.0,57,0.00,,,0.00,Wunderground v.1.15,2013-03-26 02:54:00,
2013-03-25 22:55:00,40.1,25.6,29.77,WSW,242,0.0,5.0,56,0.00,,,0.00,Wunderground v.1.15,2013-03-26 02:55:00,
2013-03-25 22:56:00,40.0,26.0,29.77,West,280,4.0,5.0,57,0.00,,,0.00,Wunderground v.1.15,2013-03-26 02:56:00,
2013-03-25 22:59:00,40.0,25.6,29.77,SSW,208,1.0,6.0,56,0.00,,,0.00,Wunderground v.1.15,2013-03-26 02:59:00,
2013-03-25 23:00:00,39.9,25.5,29.77,South,184,0.0,1.0,56,0.00,,,0.00,Wunderground v.1.15,2013-03-26 03:00:00,
2013-03-25 23:01:00,39.9,25.9,29.77,South,183,0.0,1.0,57,0.00,,,0.00,Wunderground v.1.15,2013-03-26 03:01:00,
2013-03-25 23:04:00,39.8,25.8,29.77,SSW,208,3.0,6.0,57,0.00,,,0.00,Wunderground v.1.15,2013-03-26 03:04:00,
2013-03-25 23:05:00,39.8,25.4,29.77,SW,217,0.0,6.0,56,0.00,,,0.00,Wunderground v.1.15,2013-03-26 03:05:00,
2013-03-25 23:07:00,39.8,25.8,29.77,SW,217,0.0,6.0,57,0.00,,,0.00,Wunderground v.1.15,2013-03-26 03:07:00,
2013-03-25 23:09:00,39.7,25.3,29.77,WNW,300,3.0,6.0,56,0.00,,,0.00,Wunderground v.1.15,2013-03-26 03:09:00,
2013-03-25 23:10:00,39.7,25.3,29.77,SW,214,0.0,1.0,56,0.00,,,0.00,Wunderground v.1.15,2013-03-26 03:10:00,
2013-03-25 23:12:00,39.6,25.6,29.77,SW,222,1.0,1.0,57,0.00,,,0.00,Wunderground v.1.15,2013-03-26 03:12:00,
2013-03-25 23:14:00,39.5,25.5,29.77,SW,232,1.0,1.0,57,0.00,,,0.00,Wunderground v.1.15,2013-03-26 03:14:00,
2013-03-25 23:15:00,39.5,25.5,29.77,SW,232,0.0,1.0,57,0.00,,,0.00,Wunderground v.1.15,2013-03-26 03:15:00,
2013-03-25 23:16:00,39.5,25.5,29.77,SW,232,0.0,1.0,57,0.00,,,0.00,Wunderground v.1.15,2013-03-26 03:16:00,
2013-03-25 23:17:00,39.4,25.4,29.78,SW,225,0.0,2.0,57,0.00,,,0.00,Wunderground v.1.15,2013-03-26 03:17:00,
2013-03-25 23:19:00,39.3,25.3,29.77,SSW,212,0.0,2.0,57,0.00,,,0.00,Wunderground v.1.15,2013-03-26 03:19:00,
2013-03-25 23:20:00,39.3,25.7,29.78,SSW,211,0.0,1.0,58,0.00,,,0.00,Wunderground v.1.15,2013-03-26 03:20:00,
2013-03-25 23:22:00,39.2,25.6,29.77,SSW,211,0.0,1.0,58,0.00,,,0.00,Wunderground v.1.15,2013-03-26 03:22:00,
2013-03-25 23:23:00,39.2,25.6,29.78,SW,226,1.0,2.0,58,0.00,,,0.00,Wunderground v.1.15,2013-03-26 03:23:00,
2013-03-25 23:24:00,39.1,25.6,29.78,WNW,283,1.0,2.0,58,0.00,,,0.00,Wunderground v.1.15,2013-03-26 03:24:00,
2013-03-25 23:25:00,39.1,25.6,29.77,SW,233,0.0,2.0,58,0.00,,,0.00,Wunderground v.1.15,2013-03-26 03:25:00,
2013-03-25 23:28:00,39.0,25.9,29.77,SW,228,0.0,2.0,59,0.00,,,0.00,Wunderground v.1.15,2013-03-26 03:28:00,
2013-03-25 23:30:00,38.9,25.8,29.78,SW,232,1.0,1.0,59,0.00,,,0.00,Wunderground v.1.15,2013-03-26 03:30:00,
2013-03-25 23:32:00,38.7,25.6,29.78,SW,236,0.0,2.0,59,0.00,,,0.00,Wunderground v.1.15,2013-03-26 03:32:00,
2013-03-25 23:33:00,38.7,25.6,29.78,SW,236,0.0,2.0,59,0.00,,,0.00,Wunderground v.1.15,2013-03-26 03:33:00,
2013-03-25 23:35:00,38.6,25.5,29.78,SW,235,2.0,2.0,59,0.00,,,0.00,Wunderground v.1.15,2013-03-26 03:35:00,
2013-03-25 23:38:00,38.5,25.4,29.78,SSW,198,0.0,3.0,59,0.00,,,0.00,Wunderground v.1.15,2013-03-26 03:38:00,
2013-03-25 23:40:00,38.5,25.8,29.78,WSW,242,2.0,2.0,60,0.00,,,0.00,Wunderground v.1.15,2013-03-26 03:40:00,
2013-03-25 23:43:00,38.5,25.8,29.78,SW,231,0.0,2.0,60,0.00,,,0.00,Wunderground v.1.15,2013-03-26 03:43:00,
2013-03-25 23:45:00,38.5,25.8,29.78,SSE,162,0.0,2.0,60,0.00,,,0.00,Wunderground v.1.15,2013-03-26 03:45:00,
2013-03-25 23:48:00,38.4,25.7,29.78,SW,235,2.0,2.0,60,0.00,,,0.00,Wunderground v.1.15,2013-03-26 03:48:00,
2013-03-25 23:50:00,38.3,25.6,29.78,WSW,255,1.0,1.0,60,0.00,,,0.00,Wunderground v.1.15,2013-03-26 03:50:00,
2013-03-25 23:51:00,38.4,25.7,29.78,SW,228,1.0,1.0,60,0.00,,,0.00,Wunderground v.1.15,2013-03-26 03:51:00,
2013-03-25 23:53:00,38.3,25.6,29.78,West,267,2.0,3.0,60,0.00,,,0.00,Wunderground v.1.15,2013-03-26 03:53:00,
2013-03-25 23:55:00,38.4,25.7,29.78,SW,229,2.0,3.0,60,0.00,,,0.00,Wunderground v.1.15,2013-03-26 03:55:00,
2013-03-25 23:56:00,38.4,25.7,29.78,SW,218,2.0,3.0,60,0.00,,,0.00,Wunderground v.1.15,2013-03-26 03:56:00,
2013-03-25 23:58:00,38.4,25.7,29.78,SSE,160,1.0,3.0,60,0.00,,,0.00,Wunderground v.1.15,2013-03-26 03:58:00,
2013-03-25 23:59:00,38.4,25.7,29.78,SSE,165,0.0,3.0,60,0.00,,,0.00,Wunderground v.1.15,2013-03-26 03:59:00,